Time,TemperatureF,DewpointF,PressureIn,WindDirection,WindDirectionDegrees,WindSpeedMPH,WindSpeedGustMPH,Humidity,HourlyPrecipIn,Conditions,Clouds,dailyrainin,SoftwareType,DateUTC
2013-01-06 00:00:00,36.9,28.7,30.05,South,190,1.0,10.0,72,0.00,,,0.00,VWS V14.01,2013-01-06 06:00:00,
2013-01-06 00:01:00,36.9,28.7,30.05,SSW,196,6.0,7.0,72,0.00,,OVC049,0.00,VWS V14.01,2013-01-06 06:01:00,
2013-01-06 00:02:00,36.9,28.7,30.05,SW,216,4.0,9.0,72,0.00,,OVC049,0.00,VWS V14.01,2013-01-06 06:02:00,
2013-01-06 00:04:00,36.9,28.7,30.05,SW,217,5.0,9.0,72,0.00,,OVC049,0.00,VWS V14.01,2013-01-06 06:04:00,
2013-01-06 00:06:00,36.9,28.4,30.05,South,182,8.0,9.0,71,0.00,,OVC049,0.00,VWS V14.01,2013-01-06 06:06:00,
2013-01-06 00:07:00,36.9,28.4,30.05,SSW,197,12.0,12.0,71,0.00,,OVC049,0.00,VWS V14.01,2013-01-06 06:07:00,
2013-01-06 00:09:00,37.1,28.6,30.05,SSW,200,3.0,12.0,71,0.00,,OVC049,0.00,VWS V14.01,2013-01-06 06:09:00,
2013-01-06 00:11:00,37.1,28.6,30.05,South,190,6.0,12.0,71,0.00,,OVC049,0.00,VWS V14.01,2013-01-06 06:11:00,
2013-01-06 00:12:00,37.1,28.6,30.05,South,171,3.0,12.0,71,0.00,,OVC049,0.00,VWS V14.01,2013-01-06 06:12:00,
2013-01-06 00:14:00,37.1,28.6,30.03,SW,215,4.0,12.0,71,0.00,,OVC049,0.00,VWS V14.01,2013-01-06 06:14:00,
2013-01-06 00:16:00,37.2,28.7,30.03,SSW,201,0.0,12.0,71,0.00,,OVC049,0.00,VWS V14.01,2013-01-06 06:16:00,
2013-01-06 00:17:00,37.2,28.7,30.03,SSW,203,9.0,12.0,71,0.00,,OVC049,0.00,VWS V14.01,2013-01-06 06:17:00,
2013-01-06 00:19:00,37.2,28.7,30.03,SSW,193,2.0,12.0,71,0.00,,OVC049,0.00,VWS V14.01,2013-01-06 06:19:00,
2013-01-06 00:21:00,37.2,28.7,30.03,SSW,200,6.0,12.0,71,0.00,,OVC049,0.00,VWS V14.01,2013-01-06 06:21:00,
2013-01-06 00:22:00,37.4,28.9,30.03,South,189,9.0,12.0,71,0.00,,OVC049,0.00,VWS V14.01,2013-01-06 06:22:00,
2013-01-06 00:23:00,37.4,28.9,30.03,SSW,199,3.0,12.0,71,0.00,,OVC049,0.00,VWS V14.01,2013-01-06 06:23:00,
2013-01-06 00:24:00,37.4,28.9,30.03,South,188,6.0,12.0,71,0.00,,OVC049,0.00,VWS V14.01,2013-01-06 06:24:00,
2013-01-06 00:26:00,37.4,28.9,30.03,SSW,196,2.0,12.0,71,0.00,,OVC049,0.00,VWS V14.01,2013-01-06 06:26:00,
2013-01-06 00:27:00,37.4,28.9,30.03,SSW,194,0.0,12.0,71,0.00,,OVC049,0.00,VWS V14.01,2013-01-06 06:27:00,
2013-01-06 00:28:00,37.4,28.9,30.03,SW,216,6.0,12.0,71,0.00,,OVC049,0.00,VWS V14.01,2013-01-06 06:28:00,
2013-01-06 00:29:00,37.4,28.9,30.03,SSW,210,9.0,12.0,71,0.00,,OVC049,0.00,VWS V14.01,2013-01-06 06:29:00,
2013-01-06 00:30:00,37.4,28.9,30.03,SSW,205,9.0,12.0,71,0.00,,,0.00,VWS V14.01,2013-01-06 06:30:00,
2013-01-06 00:31:00,37.4,28.9,30.03,SSW,196,2.0,9.0,71,0.00,,OVC049,0.00,VWS V14.01,2013-01-06 06:31:00,
2013-01-06 00:32:00,37.4,28.9,30.03,SSW,203,2.0,9.0,71,0.00,,OVC049,0.00,VWS V14.01,2013-01-06 06:32:00,
2013-01-06 00:33:00,37.5,29.0,30.03,South,172,4.0,9.0,71,0.00,,OVC049,0.00,VWS V14.01,2013-01-06 06:33:00,
2013-01-06 00:34:00,37.5,29.0,30.03,SSW,206,7.0,9.0,71,0.00,,OVC049,0.00,VWS V14.01,2013-01-06 06:34:00,
2013-01-06 00:37:00,37.5,28.6,30.03,SW,217,0.0,9.0,70,0.00,,OVC049,0.00,VWS V14.01,2013-01-06 06:37:00,
2013-01-06 00:38:00,37.5,29.0,30.03,South,176,6.0,9.0,71,0.00,,OVC049,0.00,VWS V14.01,2013-01-06 06:38:00,
2013-01-06 00:39:00,37.5,29.0,30.03,South,190,3.0,9.0,71,0.00,,OVC049,0.00,VWS V14.01,2013-01-06 06:39:00,
2013-01-06 00:42:00,37.5,29.0,30.03,South,182,3.0,11.0,71,0.00,,OVC049,0.00,VWS V14.01,2013-01-06 06:42:00,
2013-01-06 00:43:00,37.5,29.0,30.03,SSW,210,5.0,11.0,71,0.00,,OVC049,0.00,VWS V14.01,2013-01-06 06:43:00,
2013-01-06 00:45:00,37.4,28.9,30.03,SSW,209,4.0,11.0,71,0.00,,OVC049,0.00,VWS V14.01,2013-01-06 06:45:00,
2013-01-06 00:47:00,37.4,28.9,30.03,South,188,6.0,11.0,71,0.00,,OVC049,0.00,VWS V14.01,2013-01-06 06:47:00,
2013-01-06 00:48:00,37.4,28.9,30.03,SSW,199,5.0,11.0,71,0.00,,OVC049,0.00,VWS V14.01,2013-01-06 06:48:00,
2013-01-06 00:49:00,37.4,28.9,30.03,SSW,210,3.0,11.0,71,0.00,,OVC049,0.00,VWS V14.01,2013-01-06 06:49:00,
2013-01-06 00:50:00,37.4,28.9,30.03,SSW,209,1.0,11.0,71,0.00,,OVC049,0.00,VWS V14.01,2013-01-06 06:50:00,
2013-01-06 00:52:00,37.4,28.9,30.03,SW,216,7.0,11.0,71,0.00,,OVC049,0.00,VWS V14.01,2013-01-06 06:52:00,
2013-01-06 00:53:00,37.4,28.9,30.03,SSE,167,4.0,11.0,71,0.00,,OVC049,0.00,VWS V14.01,2013-01-06 06:53:00,
2013-01-06 00:55:00,37.4,28.9,30.03,SSW,194,4.0,11.0,71,0.00,,OVC049,0.00,VWS V14.01,2013-01-06 06:55:00,
2013-01-06 00:57:00,37.4,28.9,30.03,SSW,213,3.0,11.0,71,0.00,,OVC049,0.00,VWS V14.01,2013-01-06 06:57:00,
2013-01-06 00:58:00,37.4,28.9,30.03,SW,214,7.0,11.0,71,0.00,,OVC049,0.00,VWS V14.01,2013-01-06 06:58:00,
2013-01-06 00:59:00,37.4,28.9,30.02,SSW,192,1.0,11.0,71,0.00,,OVC049,0.00,VWS V14.01,2013-01-06 06:59:00,
2013-01-06 01:00:00,37.4,28.9,30.02,SSW,194,0.0,5.0,71,0.00,,OVC049,0.00,VWS V14.01,2013-01-06 07:00:00,
2013-01-06 01:03:00,37.4,29.2,30.02,SSW,207,1.0,5.0,72,0.00,,OVC049,0.00,VWS V14.01,2013-01-06 07:03:00,
2013-01-06 01:04:00,37.4,29.2,30.02,SSW,203,5.0,7.0,72,0.00,,OVC049,0.00,VWS V14.01,2013-01-06 07:04:00,
2013-01-06 01:05:00,37.4,29.2,30.02,SSE,168,5.0,7.0,72,0.00,,OVC049,0.00,VWS V14.01,2013-01-06 07:05:00,
2013-01-06 01:08:00,37.4,29.2,30.02,SSW,201,4.0,9.0,72,0.00,,OVC049,0.00,VWS V14.01,2013-01-06 07:08:00,
2013-01-06 01:09:00,37.4,29.2,30.02,SW,217,4.0,9.0,72,0.00,,OVC049,0.00,VWS V14.01,2013-01-06 07:09:00,
2013-01-06 01:10:00,37.4,29.2,30.02,SSW,205,3.0,9.0,72,0.00,,OVC049,0.00,VWS V14.01,2013-01-06 07:10:00,
2013-01-06 01:13:00,37.4,29.2,30.02,SSW,211,5.0,9.0,72,0.00,,OVC049,0.00,VWS V14.01,2013-01-06 07:13:00,
2013-01-06 01:14:00,37.4,29.2,30.02,South,188,2.0,9.0,72,0.00,,OVC049,0.00,VWS V14.01,2013-01-06 07:14:00,
2013-01-06 01:16:00,37.4,29.2,30.02,SSW,199,3.0,9.0,72,0.00,,OVC049,0.00,VWS V14.01,2013-01-06 07:16:00,
2013-01-06 01:18:00,37.4,29.2,30.02,South,188,5.0,9.0,72,0.00,,OVC049,0.00,VWS V14.01,2013-01-06 07:18:00,
2013-01-06 01:19:00,37.4,29.2,30.02,SW,217,5.0,9.0,72,0.00,,OVC049,0.00,VWS V14.01,2013-01-06 07:19:00,
2013-01-06 01:21:00,37.4,29.2,30.02,South,188,4.0,9.0,72,0.00,,OVC049,0.00,VWS V14.01,2013-01-06 07:21:00,
2013-01-06 01:23:00,37.4,29.2,30.02,SSW,209,0.0,9.0,72,0.00,,OVC049,0.00,VWS V14.01,2013-01-06 07:23:00,
2013-01-06 01:24:00,37.2,29.0,30.02,South,186,0.0,9.0,72,0.00,,OVC049,0.00,VWS V14.01,2013-01-06 07:24:00,
2013-01-06 01:26:00,37.2,29.0,30.02,SSE,165,5.0,9.0,72,0.00,,OVC049,0.00,VWS V14.01,2013-01-06 07:26:00,
2013-01-06 01:28:00,37.2,29.0,30.02,South,185,6.0,9.0,72,0.00,,OVC049,0.00,VWS V14.01,2013-01-06 07:28:00,
2013-01-06 01:29:00,37.2,29.0,30.02,SW,217,7.0,9.0,72,0.00,,OVC049,0.00,VWS V14.01,2013-01-06 07:29:00,
2013-01-06 01:30:00,37.2,29.0,30.02,SW,217,8.0,9.0,72,0.00,,,0.00,VWS V14.01,2013-01-06 07:30:00,
2013-01-06 01:31:00,37.2,29.0,30.02,SSW,211,2.0,8.0,72,0.00,,OVC049,0.00,VWS V14.01,2013-01-06 07:31:00,
2013-01-06 01:33:00,37.2,29.4,30.02,SW,215,4.0,11.0,73,0.00,,OVC049,0.00,VWS V14.01,2013-01-06 07:33:00,
2013-01-06 01:34:00,37.2,29.4,30.02,SSW,200,0.0,11.0,73,0.00,,OVC049,0.00,VWS V14.01,2013-01-06 07:34:00,
2013-01-06 01:36:00,37.2,29.4,30.02,SSW,196,3.0,11.0,73,0.00,,OVC049,0.00,VWS V14.01,2013-01-06 07:36:00,
2013-01-06 01:38:00,37.2,29.4,30.02,SSW,213,0.0,11.0,73,0.00,,OVC049,0.00,VWS V14.01,2013-01-06 07:38:00,
2013-01-06 01:40:00,37.1,29.3,30.02,SSW,209,2.0,11.0,73,0.00,,OVC049,0.00,VWS V14.01,2013-01-06 07:40:00,
2013-01-06 01:41:00,37.1,29.3,30.02,SSW,209,4.0,11.0,73,0.00,,OVC049,0.00,VWS V14.01,2013-01-06 07:41:00,
2013-01-06 01:43:00,37.1,29.3,30.02,South,190,1.0,11.0,73,0.00,,OVC049,0.00,VWS V14.01,2013-01-06 07:43:00,
2013-01-06 01:44:00,37.1,29.3,30.02,South,190,0.0,11.0,73,0.00,,OVC049,0.00,VWS V14.01,2013-01-06 07:44:00,
2013-01-06 01:45:00,37.1,29.3,30.02,South,170,2.0,11.0,73,0.00,,OVC045,0.00,VWS V14.01,2013-01-06 07:45:00,
2013-01-06 01:46:00,37.1,29.3,30.02,SSW,192,3.0,11.0,73,0.00,,OVC045,0.00,VWS V14.01,2013-01-06 07:46:00,
2013-01-06 01:49:00,37.1,29.3,30.02,SSW,193,0.0,11.0,73,0.00,,OVC045,0.00,VWS V14.01,2013-01-06 07:49:00,
2013-01-06 01:50:00,37.1,29.3,30.02,SSW,211,1.0,11.0,73,0.00,,OVC045,0.00,VWS V14.01,2013-01-06 07:50:00,
2013-01-06 01:51:00,37.1,29.3,30.02,SSW,206,4.0,11.0,73,0.00,,OVC045,0.00,VWS V14.01,2013-01-06 07:51:00,
2013-01-06 01:54:00,37.1,29.3,30.02,SSW,199,0.0,11.0,73,0.00,,OVC045,0.00,VWS V14.01,2013-01-06 07:54:00,
2013-01-06 01:55:00,37.1,29.3,30.02,South,187,6.0,11.0,73,0.00,,OVC045,0.00,VWS V14.01,2013-01-06 07:55:00,
2013-01-06 01:56:00,37.1,29.3,30.02,SSW,212,0.0,11.0,73,0.00,,OVC045,0.00,VWS V14.01,2013-01-06 07:56:00,
2013-01-06 01:59:00,37.1,29.3,30.03,SSW,194,1.0,11.0,73,0.00,,OVC045,0.00,VWS V14.01,2013-01-06 07:59:00,
2013-01-06 02:00:00,37.1,29.3,30.03,South,184,2.0,5.0,73,0.00,,OVC041,0.00,VWS V14.01,2013-01-06 08:00:00,
2013-01-06 02:01:00,37.1,29.3,30.03,South,182,0.0,5.0,73,0.00,,OVC041,0.00,VWS V14.01,2013-01-06 08:01:00,
2013-01-06 02:04:00,37.1,29.3,30.03,South,184,0.0,7.0,73,0.00,,OVC041,0.00,VWS V14.01,2013-01-06 08:04:00,
2013-01-06 02:06:00,37.1,29.3,30.03,South,183,6.0,7.0,73,0.00,,OVC041,0.00,VWS V14.01,2013-01-06 08:06:00,
2013-01-06 02:09:00,37.1,29.6,30.03,SW,217,4.0,7.0,74,0.00,,OVC041,0.00,VWS V14.01,2013-01-06 08:09:00,
2013-01-06 02:11:00,36.9,29.4,30.03,South,190,1.0,7.0,74,0.00,,OVC041,0.00,VWS V14.01,2013-01-06 08:11:00,
2013-01-06 02:12:00,36.9,29.4,30.03,SSW,200,0.0,7.0,74,0.00,,OVC041,0.00,VWS V14.01,2013-01-06 08:12:00,
2013-01-06 02:14:00,36.9,29.4,30.03,SSW,196,3.0,7.0,74,0.00,,OVC041,0.00,VWS V14.01,2013-01-06 08:14:00,
2013-01-06 02:16:00,36.9,29.4,30.03,SW,219,0.0,7.0,74,0.00,,OVC041,0.00,VWS V14.01,2013-01-06 08:16:00,
2013-01-06 02:17:00,36.9,29.4,30.03,SW,220,2.0,7.0,74,0.00,,OVC041,0.00,VWS V14.01,2013-01-06 08:17:00,
2013-01-06 02:19:00,36.9,29.4,30.03,SW,217,2.0,7.0,74,0.00,,OVC041,0.00,VWS V14.01,2013-01-06 08:19:00,
2013-01-06 02:21:00,36.8,29.3,30.03,SW,216,2.0,7.0,74,0.00,,OVC041,0.00,VWS V14.01,2013-01-06 08:21:00,
2013-01-06 02:22:00,36.8,29.3,30.03,SW,219,3.0,8.0,74,0.00,,OVC041,0.00,VWS V14.01,2013-01-06 08:22:00,
2013-01-06 02:24:00,36.8,29.3,30.03,SW,232,2.0,9.0,74,0.00,,OVC041,0.00,VWS V14.01,2013-01-06 08:24:00,
2013-01-06 02:26:00,36.8,29.3,30.03,South,190,0.0,9.0,74,0.00,,OVC041,0.00,VWS V14.01,2013-01-06 08:26:00,
2013-01-06 02:27:00,36.8,29.3,30.03,South,190,0.0,9.0,74,0.00,,OVC041,0.00,VWS V14.01,2013-01-06 08:27:00,
2013-01-06 02:29:00,36.8,29.6,30.03,SSW,213,1.0,9.0,75,0.00,,OVC041,0.00,VWS V14.01,2013-01-06 08:29:00,
2013-01-06 02:30:00,36.8,29.6,30.03,SSW,213,0.0,9.0,75,0.00,,,0.00,VWS V14.01,2013-01-06 08:30:00,
2013-01-06 02:31:00,36.8,29.6,30.03,SSW,203,0.0,7.0,75,0.00,,OVC041,0.00,VWS V14.01,2013-01-06 08:31:00,
2013-01-06 02:33:00,36.8,29.6,30.03,SSW,205,0.0,7.0,75,0.00,,OVC041,0.00,VWS V14.01,2013-01-06 08:33:00,
2013-01-06 02:34:00,36.8,29.6,30.03,SW,233,0.0,7.0,75,0.00,,OVC041,0.00,VWS V14.01,2013-01-06 08:34:00,
2013-01-06 02:36:00,36.7,29.5,30.03,SW,221,5.0,7.0,75,0.00,,OVC041,0.00,VWS V14.01,2013-01-06 08:36:00,
2013-01-06 02:38:00,36.7,29.5,30.03,SSW,209,0.0,7.0,75,0.00,,OVC041,0.00,VWS V14.01,2013-01-06 08:38:00,
2013-01-06 02:39:00,36.7,29.5,30.03,SW,222,0.0,7.0,75,0.00,,OVC041,0.00,VWS V14.01,2013-01-06 08:39:00,
2013-01-06 02:42:00,36.7,29.5,30.03,SSW,197,3.0,7.0,75,0.00,,OVC041,0.00,VWS V14.01,2013-01-06 08:42:00,
2013-01-06 02:43:00,36.7,29.5,30.03,SSW,202,0.0,7.0,75,0.00,,OVC041,0.00,VWS V14.01,2013-01-06 08:43:00,
2013-01-06 02:44:00,36.7,29.5,30.02,SW,223,0.0,7.0,75,0.00,,OVC041,0.00,VWS V14.01,2013-01-06 08:44:00,
2013-01-06 02:45:00,36.7,29.5,30.02,SW,223,0.0,7.0,75,0.00,,OVC041,0.00,VWS V14.01,2013-01-06 08:45:00,
2013-01-06 02:47:00,36.7,29.5,30.02,SW,229,0.0,7.0,75,0.00,,OVC041,0.00,VWS V14.01,2013-01-06 08:47:00,
2013-01-06 02:48:00,36.7,29.5,30.02,SW,229,0.0,7.0,75,0.00,,OVC041,0.00,VWS V14.01,2013-01-06 08:48:00,
2013-01-06 02:49:00,36.7,29.5,30.02,SW,220,4.0,7.0,75,0.00,,OVC041,0.00,VWS V14.01,2013-01-06 08:49:00,
2013-01-06 02:50:00,36.7,29.5,30.02,SSW,212,3.0,7.0,75,0.00,,OVC041,0.00,VWS V14.01,2013-01-06 08:50:00,
2013-01-06 02:52:00,36.8,29.6,30.02,SW,234,0.0,7.0,75,0.00,,OVC041,0.00,VWS V14.01,2013-01-06 08:52:00,
2013-01-06 02:53:00,36.8,29.6,30.02,SW,230,0.0,7.0,75,0.00,,OVC041,0.00,VWS V14.01,2013-01-06 08:53:00,
2013-01-06 02:55:00,36.8,29.6,30.02,SW,220,0.0,7.0,75,0.00,,OVC041,0.00,VWS V14.01,2013-01-06 08:55:00,
2013-01-06 02:58:00,36.8,29.6,30.02,SSW,209,5.0,7.0,75,0.00,,OVC041,0.00,VWS V14.01,2013-01-06 08:58:00,
2013-01-06 02:59:00,36.9,29.7,30.02,SW,234,2.0,7.0,75,0.00,,OVC041,0.00,VWS V14.01,2013-01-06 08:59:00,
2013-01-06 03:00:00,36.9,29.7,30.02,SW,223,3.0,7.0,75,0.00,,OVC041,0.00,VWS V14.01,2013-01-06 09:00:00,
2013-01-06 03:03:00,36.9,29.7,30.02,SSW,213,0.0,6.0,75,0.00,,OVC032,0.00,VWS V14.01,2013-01-06 09:03:00,
2013-01-06 03:04:00,36.9,29.7,30.02,SW,216,0.0,6.0,75,0.00,,OVC032,0.00,VWS V14.01,2013-01-06 09:04:00,
2013-01-06 03:05:00,36.9,29.7,30.02,SW,234,0.0,6.0,75,0.00,,OVC032,0.00,VWS V14.01,2013-01-06 09:05:00,
2013-01-06 03:08:00,36.9,29.7,30.02,WSW,245,3.0,7.0,75,0.00,,OVC032,0.00,VWS V14.01,2013-01-06 09:08:00,
2013-01-06 03:09:00,37.1,29.9,30.02,WSW,238,2.0,7.0,75,0.00,,OVC032,0.00,VWS V14.01,2013-01-06 09:09:00,
2013-01-06 03:10:00,37.1,29.9,30.02,WSW,238,0.0,7.0,75,0.00,,OVC032,0.00,VWS V14.01,2013-01-06 09:10:00,
2013-01-06 03:13:00,37.1,29.6,30.02,SW,236,0.0,7.0,74,0.00,,OVC032,0.00,VWS V14.01,2013-01-06 09:13:00,
2013-01-06 03:14:00,37.1,29.6,30.02,SW,236,0.0,7.0,74,0.00,,OVC032,0.00,VWS V14.01,2013-01-06 09:14:00,
2013-01-06 03:15:00,37.1,29.6,30.02,SW,236,0.0,7.0,74,0.00,,OVC032,0.00,VWS V14.01,2013-01-06 09:15:00,
2013-01-06 03:19:00,37.1,29.6,30.02,WSW,238,1.0,7.0,74,0.00,,OVC032,0.00,VWS V14.01,2013-01-06 09:19:00,
2013-01-06 03:20:00,36.9,29.4,30.02,WSW,238,0.0,7.0,74,0.00,,OVC032,0.00,VWS V14.01,2013-01-06 09:20:00,
2013-01-06 03:24:00,36.9,29.4,30.02,WSW,239,0.0,7.0,74,0.00,,OVC032,0.00,VWS V14.01,2013-01-06 09:24:00,
2013-01-06 03:25:00,36.9,29.4,30.02,WSW,239,0.0,7.0,74,0.00,,OVC032,0.00,VWS V14.01,2013-01-06 09:25:00,
2013-01-06 03:29:00,36.9,29.7,30.02,West,262,0.0,7.0,75,0.00,,OVC032,0.00,VWS V14.01,2013-01-06 09:29:00,
2013-01-06 03:30:00,36.9,29.7,30.02,WSW,242,0.0,3.0,75,0.00,,OVC032,0.00,VWS V14.01,2013-01-06 09:30:00,
2013-01-06 03:34:00,37.1,29.6,30.02,WSW,243,2.0,5.0,74,0.00,,OVC032,0.00,VWS V14.01,2013-01-06 09:34:00,
2013-01-06 03:35:00,37.2,29.7,30.02,WSW,249,0.0,5.0,74,0.00,,OVC032,0.00,VWS V14.01,2013-01-06 09:35:00,
2013-01-06 03:36:00,37.2,29.7,30.02,WSW,256,0.0,5.0,74,0.00,,OVC032,0.00,VWS V14.01,2013-01-06 09:36:00,
2013-01-06 03:39:00,37.5,30.0,30.02,WSW,257,0.0,9.0,74,0.00,,OVC032,0.00,VWS V14.01,2013-01-06 09:39:00,
2013-01-06 03:40:00,37.5,29.6,30.02,WNW,282,5.0,9.0,73,0.00,,OVC032,0.00,VWS V14.01,2013-01-06 09:40:00,
2013-01-06 03:41:00,37.7,29.8,30.02,West,274,4.0,9.0,73,0.00,,OVC032,0.00,VWS V14.01,2013-01-06 09:41:00,
2013-01-06 03:44:00,37.8,29.9,30.02,WSW,243,0.0,9.0,73,0.00,,OVC032,0.00,VWS V14.01,2013-01-06 09:44:00,
2013-01-06 03:45:00,37.8,29.9,30.02,WNW,300,6.0,9.0,73,0.00,,OVC030,0.00,VWS V14.01,2013-01-06 09:45:00,
2013-01-06 03:46:00,37.8,29.6,30.02,West,270,8.0,9.0,72,0.00,,OVC030,0.00,VWS V14.01,2013-01-06 09:46:00,
2013-01-06 03:49:00,37.8,29.6,30.02,West,266,3.0,14.0,72,0.00,,OVC030,0.00,VWS V14.01,2013-01-06 09:49:00,
2013-01-06 03:50:00,37.8,29.6,30.02,WSW,256,2.0,14.0,72,0.00,,OVC030,0.00,VWS V14.01,2013-01-06 09:50:00,
2013-01-06 03:51:00,37.8,29.6,30.02,WSW,249,3.0,14.0,72,0.00,,OVC030,0.00,VWS V14.01,2013-01-06 09:51:00,
2013-01-06 03:54:00,37.7,29.5,30.02,West,259,0.0,14.0,72,0.00,,OVC030,0.00,VWS V14.01,2013-01-06 09:54:00,
2013-01-06 03:55:00,37.7,29.5,30.02,WNW,288,1.0,14.0,72,0.00,,OVC030,0.00,VWS V14.01,2013-01-06 09:55:00,
2013-01-06 03:56:00,37.7,29.5,30.02,West,272,3.0,14.0,72,0.00,,OVC030,0.00,VWS V14.01,2013-01-06 09:56:00,
2013-01-06 03:59:00,37.7,30.2,30.02,West,259,5.0,14.0,74,0.00,,OVC030,0.00,VWS V14.01,2013-01-06 09:59:00,
2013-01-06 04:00:00,37.5,29.3,30.02,WNW,289,5.0,5.0,72,0.00,,OVC028,0.00,VWS V14.01,2013-01-06 10:00:00,
2013-01-06 04:01:00,37.5,29.3,30.02,WSW,257,7.0,7.0,72,0.00,,OVC028,0.00,VWS V14.01,2013-01-06 10:01:00,
2013-01-06 04:04:00,37.5,29.3,30.02,WNW,286,2.0,7.0,72,0.00,,OVC028,0.00,VWS V14.01,2013-01-06 10:04:00,
2013-01-06 04:05:00,37.4,29.2,30.02,West,281,4.0,9.0,72,0.00,,OVC028,0.00,VWS V14.01,2013-01-06 10:05:00,
2013-01-06 04:06:00,37.4,29.2,30.02,WSW,252,4.0,9.0,72,0.00,,OVC028,0.00,VWS V14.01,2013-01-06 10:06:00,
2013-01-06 04:09:00,37.2,29.0,30.02,WNW,282,0.0,9.0,72,0.00,,OVC028,0.00,VWS V14.01,2013-01-06 10:09:00,
2013-01-06 04:10:00,37.2,29.0,30.02,WSW,254,0.0,9.0,72,0.00,,OVC028,0.00,VWS V14.01,2013-01-06 10:10:00,
2013-01-06 04:11:00,37.2,29.0,30.02,WSW,254,0.0,9.0,72,0.00,,OVC028,0.00,VWS V14.01,2013-01-06 10:11:00,
2013-01-06 04:14:00,37.1,28.9,30.02,West,263,3.0,9.0,72,0.00,,OVC028,0.00,VWS V14.01,2013-01-06 10:14:00,
2013-01-06 04:15:00,37.1,28.9,30.02,West,281,0.0,9.0,72,0.00,,OVC028,0.00,VWS V14.01,2013-01-06 10:15:00,
2013-01-06 04:16:00,36.9,28.7,30.02,West,278,5.0,9.0,72,0.00,,OVC028,0.00,VWS V14.01,2013-01-06 10:16:00,
2013-01-06 04:20:00,36.9,28.7,30.02,West,275,0.0,9.0,72,0.00,,OVC028,0.00,VWS V14.01,2013-01-06 10:20:00,
2013-01-06 04:21:00,36.8,28.6,30.02,WSW,253,5.0,10.0,72,0.00,,OVC028,0.00,VWS V14.01,2013-01-06 10:21:00,
2013-01-06 04:25:00,36.8,28.6,30.02,WNW,298,0.0,10.0,72,0.00,,OVC028,0.00,VWS V14.01,2013-01-06 10:25:00,
2013-01-06 04:26:00,36.7,28.5,30.02,West,273,4.0,10.0,72,0.00,,OVC028,0.00,VWS V14.01,2013-01-06 10:26:00,
2013-01-06 04:30:00,36.7,28.5,30.02,West,269,3.0,6.0,72,0.00,,OVC028,0.00,VWS V14.01,2013-01-06 10:30:00,
2013-01-06 04:31:00,36.7,28.5,30.02,West,279,6.0,10.0,72,0.00,,OVC028,0.00,VWS V14.01,2013-01-06 10:31:00,
2013-01-06 04:35:00,36.5,28.4,30.02,West,277,0.0,10.0,72,0.00,,OVC028,0.00,VWS V14.01,2013-01-06 10:35:00,
2013-01-06 04:36:00,36.5,28.4,30.02,WNW,286,6.0,10.0,72,0.00,,OVC028,0.00,VWS V14.01,2013-01-06 10:36:00,
2013-01-06 04:40:00,36.4,28.6,30.02,WSW,250,0.0,10.0,73,0.00,,OVC028,0.00,VWS V14.01,2013-01-06 10:40:00,
2013-01-06 04:41:00,36.4,28.6,30.02,NW,318,6.0,10.0,73,0.00,,OVC028,0.00,VWS V14.01,2013-01-06 10:41:00,
2013-01-06 04:42:00,36.4,28.6,30.02,WNW,292,6.0,12.0,73,0.00,,OVC028,0.00,VWS V14.01,2013-01-06 10:42:00,
2013-01-06 04:45:00,36.2,28.1,30.03,WNW,290,0.0,12.0,72,0.00,,OVC026,0.00,VWS V14.01,2013-01-06 10:45:00,
2013-01-06 04:46:00,36.2,28.1,30.03,West,263,3.0,12.0,72,0.00,,OVC026,0.00,VWS V14.01,2013-01-06 10:46:00,
2013-01-06 04:47:00,36.2,28.1,30.03,West,273,11.0,12.0,72,0.00,,OVC026,0.00,VWS V14.01,2013-01-06 10:47:00,
2013-01-06 04:50:00,36.1,28.3,30.03,NW,325,1.0,12.0,73,0.00,,OVC026,0.00,VWS V14.01,2013-01-06 10:50:00,
2013-01-06 04:51:00,35.9,28.1,30.03,WNW,291,6.0,16.0,73,0.00,,OVC026,0.00,VWS V14.01,2013-01-06 10:51:00,
2013-01-06 04:52:00,35.9,28.1,30.03,WNW,302,3.0,16.0,73,0.00,,OVC026,0.00,VWS V14.01,2013-01-06 10:52:00,
2013-01-06 04:55:00,35.4,27.3,30.03,WNW,292,5.0,16.0,72,0.00,,OVC026,0.00,VWS V14.01,2013-01-06 10:55:00,
2013-01-06 04:56:00,35.4,27.3,30.03,NW,307,7.0,16.0,72,0.00,,OVC026,0.00,VWS V14.01,2013-01-06 10:56:00,
2013-01-06 04:57:00,35.1,27.0,30.03,West,281,1.0,16.0,72,0.00,,OVC026,0.00,VWS V14.01,2013-01-06 10:57:00,
2013-01-06 05:00:00,34.8,27.0,30.04,NW,308,9.0,16.0,73,0.00,,,0.00,VWS V14.01,2013-01-06 11:00:00,
2013-01-06 05:01:00,34.6,26.9,30.04,NW,321,4.0,11.0,73,0.00,,OVC026,0.00,VWS V14.01,2013-01-06 11:01:00,
2013-01-06 05:02:00,34.5,26.8,30.04,NW,309,0.0,11.0,73,0.00,,OVC026,0.00,VWS V14.01,2013-01-06 11:02:00,
2013-01-06 05:03:00,34.5,26.8,30.04,North,360,4.0,13.0,73,0.00,,OVC026,0.00,VWS V14.01,2013-01-06 11:03:00,
2013-01-06 05:06:00,34.2,26.5,30.04,WSW,258,2.0,13.0,73,0.00,,OVC026,0.00,VWS V14.01,2013-01-06 11:06:00,
2013-01-06 05:07:00,34.2,26.5,30.04,West,279,7.0,13.0,73,0.00,,OVC026,0.00,VWS V14.01,2013-01-06 11:07:00,
2013-01-06 05:08:00,34.0,26.3,30.04,WNW,303,5.0,13.0,73,0.00,,OVC026,0.00,VWS V14.01,2013-01-06 11:08:00,
2013-01-06 05:11:00,33.9,26.2,30.04,NNW,347,4.0,13.0,73,0.00,,OVC026,0.00,VWS V14.01,2013-01-06 11:11:00,
2013-01-06 05:12:00,33.9,26.2,30.04,WNW,301,0.0,13.0,73,0.00,,OVC026,0.00,VWS V14.01,2013-01-06 11:12:00,
2013-01-06 05:14:00,33.7,26.0,30.04,WNW,284,3.0,13.0,73,0.00,,OVC026,0.00,VWS V14.01,2013-01-06 11:14:00,
2013-01-06 05:16:00,33.7,26.0,30.04,NW,323,2.0,16.0,73,0.00,,OVC026,0.00,VWS V14.01,2013-01-06 11:16:00,
2013-01-06 05:17:00,33.6,25.5,30.04,NW,321,6.0,16.0,72,0.00,,OVC026,0.00,VWS V14.01,2013-01-06 11:17:00,
2013-01-06 05:20:00,33.6,25.5,30.04,West,272,4.0,16.0,72,0.00,,OVC026,0.00,VWS V14.01,2013-01-06 11:20:00,
2013-01-06 05:21:00,33.6,25.5,30.04,NNW,333,3.0,16.0,72,0.00,,OVC026,0.00,VWS V14.01,2013-01-06 11:21:00,
2013-01-06 05:22:00,33.6,25.5,30.04,WNW,285,0.0,16.0,72,0.00,,OVC026,0.00,VWS V14.01,2013-01-06 11:22:00,
2013-01-06 05:25:00,33.4,25.4,30.04,NW,322,7.0,16.0,72,0.00,,OVC026,0.00,VWS V14.01,2013-01-06 11:25:00,
2013-01-06 05:26:00,33.4,25.4,30.04,WNW,302,3.0,16.0,72,0.00,,OVC026,0.00,VWS V14.01,2013-01-06 11:26:00,
2013-01-06 05:27:00,33.4,25.0,30.04,NW,313,2.0,16.0,71,0.00,,OVC026,0.00,VWS V14.01,2013-01-06 11:27:00,
2013-01-06 05:30:00,33.4,25.4,30.05,West,273,7.0,11.0,72,0.00,,OVC026,0.00,VWS V14.01,2013-01-06 11:30:00,
2013-01-06 05:31:00,33.4,25.4,30.05,West,279,7.0,11.0,72,0.00,,OVC026,0.00,VWS V14.01,2013-01-06 11:31:00,
2013-01-06 05:32:00,33.4,25.0,30.05,WNW,288,4.0,11.0,71,0.00,,OVC026,0.00,VWS V14.01,2013-01-06 11:32:00,
2013-01-06 05:36:00,33.3,24.9,30.05,West,281,4.0,11.0,71,0.00,,OVC026,0.00,VWS V14.01,2013-01-06 11:36:00,
2013-01-06 05:37:00,33.3,24.9,30.05,West,277,3.0,11.0,71,0.00,,OVC026,0.00,VWS V14.01,2013-01-06 11:37:00,
2013-01-06 05:41:00,33.3,24.9,30.05,NW,305,7.0,11.0,71,0.00,,OVC026,0.00,VWS V14.01,2013-01-06 11:41:00,
2013-01-06 05:42:00,33.3,24.9,30.05,West,277,2.0,12.0,71,0.00,,OVC026,0.00,VWS V14.01,2013-01-06 11:42:00,
2013-01-06 05:46:00,33.3,24.9,30.06,NW,324,9.0,12.0,71,0.00,,OVC026,0.00,VWS V14.01,2013-01-06 11:46:00,
2013-01-06 05:47:00,33.3,24.9,30.06,WNW,286,2.0,12.0,71,0.00,,OVC026,0.00,VWS V14.01,2013-01-06 11:47:00,
2013-01-06 05:51:00,33.3,24.9,30.06,West,273,10.0,12.0,71,0.00,,OVC026,0.00,VWS V14.01,2013-01-06 11:51:00,
2013-01-06 05:52:00,33.3,24.9,30.06,West,275,3.0,12.0,71,0.00,,OVC026,0.00,VWS V14.01,2013-01-06 11:52:00,
2013-01-06 05:56:00,33.3,24.6,30.06,West,281,0.0,12.0,70,0.00,,OVC026,0.00,VWS V14.01,2013-01-06 11:56:00,
2013-01-06 05:58:00,33.4,24.7,30.06,WNW,294,3.0,12.0,70,0.00,,OVC026,0.00,VWS V14.01,2013-01-06 11:58:00,
2013-01-06 06:00:00,33.1,25.4,30.08,WNW,296,0.0,14.0,73,0.00,,OVC041,0.00,VWS V14.01,2013-01-06 12:00:00,
2013-01-06 06:01:00,33.4,25.0,30.07,West,280,0.0,2.0,71,0.00,,OVC080,0.00,VWS V14.01,2013-01-06 12:01:00,
2013-01-06 06:02:00,33.4,25.0,30.07,West,277,3.0,4.0,71,0.00,,OVC080,0.00,VWS V14.01,2013-01-06 12:02:00,
2013-01-06 06:03:00,33.4,25.0,30.07,West,276,3.0,5.0,71,0.00,,OVC080,0.00,VWS V14.01,2013-01-06 12:03:00,
2013-01-06 06:06:00,33.3,24.9,30.07,NW,304,0.0,5.0,71,0.00,,OVC080,0.00,VWS V14.01,2013-01-06 12:06:00,
2013-01-06 06:07:00,33.3,24.9,30.07,WNW,284,1.0,7.0,71,0.00,,OVC080,0.00,VWS V14.01,2013-01-06 12:07:00,
2013-01-06 06:08:00,33.3,24.9,30.07,NNW,344,4.0,9.0,71,0.00,,OVC080,0.00,VWS V14.01,2013-01-06 12:08:00,
2013-01-06 06:11:00,33.3,24.6,30.07,NW,305,4.0,10.0,70,0.00,,OVC080,0.00,VWS V14.01,2013-01-06 12:11:00,
2013-01-06 06:12:00,33.3,24.6,30.07,WNW,294,2.0,10.0,70,0.00,,OVC080,0.00,VWS V14.01,2013-01-06 12:12:00,
2013-01-06 06:13:00,33.3,24.6,30.07,WNW,296,2.0,10.0,70,0.00,,OVC080,0.00,VWS V14.01,2013-01-06 12:13:00,
2013-01-06 06:16:00,33.3,24.6,30.07,West,266,4.0,11.0,70,0.00,,OVC080,0.00,VWS V14.01,2013-01-06 12:16:00,
2013-01-06 06:17:00,33.3,24.6,30.07,West,281,3.0,11.0,70,0.00,,OVC080,0.00,VWS V14.01,2013-01-06 12:17:00,
2013-01-06 06:18:00,33.3,24.6,30.07,West,275,1.0,11.0,70,0.00,,OVC080,0.00,VWS V14.01,2013-01-06 12:18:00,
2013-01-06 06:21:00,33.3,24.6,30.07,WNW,300,1.0,11.0,70,0.00,,OVC080,0.00,VWS V14.01,2013-01-06 12:21:00,
2013-01-06 06:22:00,33.3,24.6,30.07,West,268,2.0,11.0,70,0.00,,OVC080,0.00,VWS V14.01,2013-01-06 12:22:00,
2013-01-06 06:23:00,33.3,24.6,30.07,West,278,10.0,11.0,70,0.00,,OVC080,0.00,VWS V14.01,2013-01-06 12:23:00,
2013-01-06 06:26:00,33.3,24.6,30.07,WNW,296,0.0,11.0,70,0.00,,OVC080,0.00,VWS V14.01,2013-01-06 12:26:00,
2013-01-06 06:27:00,33.3,24.9,30.07,NW,315,7.0,11.0,71,0.00,,OVC080,0.00,VWS V14.01,2013-01-06 12:27:00,
2013-01-06 06:28:00,33.3,24.9,30.07,WNW,291,0.0,11.0,71,0.00,,OVC080,0.00,VWS V14.01,2013-01-06 12:28:00,
2013-01-06 06:30:00,33.3,24.9,30.08,WNW,296,1.0,12.0,71,0.00,,,0.00,VWS V14.01,2013-01-06 12:30:00,
2013-01-06 06:31:00,33.3,24.9,30.08,NNW,329,4.0,9.0,71,0.00,,OVC080,0.00,VWS V14.01,2013-01-06 12:31:00,
2013-01-06 06:32:00,33.3,24.9,30.08,West,260,3.0,9.0,71,0.00,,OVC080,0.00,VWS V14.01,2013-01-06 12:32:00,
2013-01-06 06:33:00,33.3,24.9,30.08,WNW,299,2.0,9.0,71,0.00,,OVC080,0.00,VWS V14.01,2013-01-06 12:33:00,
2013-01-06 06:37:00,33.3,24.9,30.08,West,279,0.0,14.0,71,0.00,,OVC080,0.00,VWS V14.01,2013-01-06 12:37:00,
2013-01-06 06:38:00,33.3,24.9,30.08,West,278,3.0,14.0,71,0.00,,OVC080,0.00,VWS V14.01,2013-01-06 12:38:00,
2013-01-06 06:42:00,33.3,24.9,30.08,West,269,5.0,14.0,71,0.00,,OVC080,0.00,VWS V14.01,2013-01-06 12:42:00,
2013-01-06 06:43:00,33.3,24.9,30.08,West,279,5.0,14.0,71,0.00,,OVC080,0.00,VWS V14.01,2013-01-06 12:43:00,
2013-01-06 06:44:00,33.3,24.9,30.08,West,281,2.0,14.0,71,0.00,,OVC080,0.00,VWS V14.01,2013-01-06 12:44:00,
2013-01-06 06:47:00,33.3,24.9,30.08,WNW,286,1.0,14.0,71,0.00,,OVC080,0.00,VWS V14.01,2013-01-06 12:47:00,
2013-01-06 06:48:00,33.1,24.7,30.08,West,273,0.0,14.0,71,0.00,,OVC080,0.00,VWS V14.01,2013-01-06 12:48:00,
2013-01-06 06:49:00,33.1,24.7,30.08,West,273,0.0,14.0,71,0.00,,OVC080,0.00,VWS V14.01,2013-01-06 12:49:00,
2013-01-06 06:52:00,33.1,25.1,30.08,WNW,290,3.0,14.0,72,0.00,,OVC080,0.00,VWS V14.01,2013-01-06 12:52:00,
2013-01-06 06:54:00,33.1,25.1,30.08,WSW,252,2.0,14.0,72,0.00,,OVC080,0.00,VWS V14.01,2013-01-06 12:54:00,
2013-01-06 06:57:00,33.1,25.1,30.08,WNW,296,3.0,14.0,72,0.00,,OVC080,0.00,VWS V14.01,2013-01-06 12:57:00,
2013-01-06 06:59:00,33.1,25.1,30.08,WNW,298,3.0,14.0,72,0.00,,OVC080,0.00,VWS V14.01,2013-01-06 12:59:00,
2013-01-06 07:00:00,33.1,25.4,30.08,WNW,296,0.0,14.0,73,0.00,,,0.00,VWS V14.01,2013-01-06 13:00:00,
2013-01-06 07:02:00,33.0,25.0,30.08,WNW,291,5.0,13.0,72,0.00,,OVC030,0.00,VWS V14.01,2013-01-06 13:02:00,
2013-01-06 07:04:00,33.0,25.0,30.08,WNW,290,2.0,13.0,72,0.00,,OVC030,0.00,VWS V14.01,2013-01-06 13:04:00,
2013-01-06 07:07:00,32.8,24.1,30.08,West,269,5.0,13.0,70,0.00,,OVC030,0.00,VWS V14.01,2013-01-06 13:07:00,
2013-01-06 07:09:00,32.8,24.1,30.08,WNW,283,3.0,13.0,70,0.00,,OVC030,0.00,VWS V14.01,2013-01-06 13:09:00,
2013-01-06 07:12:00,32.7,23.7,30.08,WNW,291,2.0,13.0,69,0.00,,OVC030,0.00,VWS V14.01,2013-01-06 13:12:00,
2013-01-06 07:14:00,32.7,23.3,30.09,WNW,284,5.0,13.0,68,0.00,,OVC030,0.00,VWS V14.01,2013-01-06 13:14:00,
2013-01-06 07:17:00,32.7,23.7,30.09,NW,306,0.0,13.0,69,0.00,,OVC030,0.00,VWS V14.01,2013-01-06 13:17:00,
2013-01-06 07:19:00,32.7,23.7,30.09,West,277,3.0,13.0,69,0.00,,OVC030,0.00,VWS V14.01,2013-01-06 13:19:00,
2013-01-06 07:22:00,32.6,23.6,30.09,NW,305,10.0,13.0,69,0.00,,OVC030,0.00,VWS V14.01,2013-01-06 13:22:00,
2013-01-06 07:24:00,32.6,23.6,30.09,NW,321,4.0,13.0,69,0.00,,OVC030,0.00,VWS V14.01,2013-01-06 13:24:00,
2013-01-06 07:28:00,32.6,23.9,30.09,NW,309,4.0,13.0,70,0.00,,OVC030,0.00,VWS V14.01,2013-01-06 13:28:00,
2013-01-06 07:29:00,32.6,23.9,30.10,WNW,289,5.0,14.0,70,0.00,,OVC030,0.00,VWS V14.01,2013-01-06 13:29:00,
2013-01-06 07:30:00,32.6,23.9,30.10,West,273,7.0,7.0,70,0.00,,OVC030,0.00,VWS V14.01,2013-01-06 13:30:00,
2013-01-06 07:33:00,32.4,24.1,30.10,WNW,292,14.0,15.0,71,0.00,,OVC030,0.00,VWS V14.01,2013-01-06 13:33:00,
2013-01-06 07:34:00,32.4,24.1,30.10,NW,312,1.0,15.0,71,0.00,,OVC030,0.00,VWS V14.01,2013-01-06 13:34:00,
2013-01-06 07:35:00,32.4,24.1,30.10,NW,310,5.0,15.0,71,0.00,,OVC030,0.00,VWS V14.01,2013-01-06 13:35:00,
2013-01-06 07:38:00,32.4,24.4,30.10,WNW,301,15.0,15.0,72,0.00,,OVC030,0.00,VWS V14.01,2013-01-06 13:38:00,
2013-01-06 07:39:00,32.3,24.3,30.10,WNW,287,7.0,18.0,72,0.00,,OVC030,0.00,VWS V14.01,2013-01-06 13:39:00,
2013-01-06 07:40:00,32.3,24.3,30.10,NW,324,11.0,18.0,72,0.00,,OVC030,0.00,VWS V14.01,2013-01-06 13:40:00,
2013-01-06 07:43:00,32.1,24.1,30.10,NW,320,15.0,18.0,72,0.00,,OVC030,0.00,VWS V14.01,2013-01-06 13:43:00,
2013-01-06 07:44:00,32.0,23.7,30.10,NW,312,7.0,22.0,71,0.00,,OVC030,0.00,VWS V14.01,2013-01-06 13:44:00,
2013-01-06 07:45:00,32.0,23.7,30.10,North,350,12.0,22.0,71,0.00,,OVC025,0.00,VWS V14.01,2013-01-06 13:45:00,
2013-01-06 07:48:00,31.8,23.5,30.10,WNW,298,2.0,22.0,71,0.00,,OVC025,0.00,VWS V14.01,2013-01-06 13:48:00,
2013-01-06 07:50:00,31.8,23.5,30.10,West,275,1.0,22.0,71,0.00,,OVC025,0.00,VWS V14.01,2013-01-06 13:50:00,
2013-01-06 07:53:00,31.8,23.5,30.10,West,278,5.0,22.0,71,0.00,,OVC025,0.00,VWS V14.01,2013-01-06 13:53:00,
2013-01-06 07:55:00,31.8,23.5,30.10,NW,319,17.0,22.0,71,0.00,,OVC025,0.00,VWS V14.01,2013-01-06 13:55:00,
2013-01-06 07:59:00,31.7,23.4,30.11,NW,313,6.0,22.0,71,0.00,,OVC025,0.00,VWS V14.01,2013-01-06 13:59:00,
2013-01-06 08:00:00,31.7,23.4,30.11,WNW,294,1.0,7.0,71,0.00,,OVC025,0.00,VWS V14.01,2013-01-06 14:00:00,
2013-01-06 08:04:00,31.7,23.4,30.11,NNW,331,7.0,14.0,71,0.00,,OVC021,0.00,VWS V14.01,2013-01-06 14:04:00,
2013-01-06 08:05:00,31.5,22.9,30.11,WNW,294,4.0,15.0,70,0.00,,OVC021,0.00,VWS V14.01,2013-01-06 14:05:00,
2013-01-06 08:09:00,31.5,22.9,30.11,WNW,303,9.0,15.0,70,0.00,,OVC021,0.00,VWS V14.01,2013-01-06 14:09:00,
2013-01-06 08:10:00,31.5,22.9,30.11,West,273,6.0,15.0,70,0.00,,OVC021,0.00,VWS V14.01,2013-01-06 14:10:00,
2013-01-06 08:14:00,31.4,23.1,30.12,NW,304,2.0,15.0,71,0.00,,OVC021,0.00,VWS V14.01,2013-01-06 14:14:00,
2013-01-06 08:15:00,31.4,23.1,30.12,West,280,1.0,15.0,71,0.00,,OVC021,0.00,VWS V14.01,2013-01-06 14:15:00,
2013-01-06 08:19:00,31.4,23.1,30.12,West,276,5.0,15.0,71,0.00,,OVC021,0.00,VWS V14.01,2013-01-06 14:19:00,
2013-01-06 08:20:00,31.4,23.1,30.12,West,281,4.0,15.0,71,0.00,,OVC021,0.00,VWS V14.01,2013-01-06 14:20:00,
2013-01-06 08:24:00,31.4,23.1,30.12,WNW,284,5.0,15.0,71,0.00,,OVC021,0.00,VWS V14.01,2013-01-06 14:24:00,
2013-01-06 08:25:00,31.4,23.1,30.12,West,273,2.0,15.0,71,0.00,,OVC021,0.00,VWS V14.01,2013-01-06 14:25:00,
2013-01-06 08:29:00,31.4,23.1,30.12,WNW,287,6.0,15.0,71,0.00,,OVC021,0.00,VWS V14.01,2013-01-06 14:29:00,
2013-01-06 08:30:00,31.4,23.1,30.12,NW,304,7.0,11.0,71,0.00,,OVC021,0.00,VWS V14.01,2013-01-06 14:30:00,
2013-01-06 08:31:00,31.4,23.1,30.12,West,281,4.0,11.0,71,0.00,,OVC021,0.00,VWS V14.01,2013-01-06 14:31:00,
2013-01-06 08:34:00,31.2,22.9,30.12,WSW,257,3.0,14.0,71,0.00,,OVC021,0.00,VWS V14.01,2013-01-06 14:34:00,
2013-01-06 08:36:00,31.2,22.9,30.12,West,265,6.0,14.0,71,0.00,,OVC021,0.00,VWS V14.01,2013-01-06 14:36:00,
2013-01-06 08:39:00,31.1,22.5,30.12,WNW,289,6.0,14.0,70,0.00,,OVC021,0.00,VWS V14.01,2013-01-06 14:39:00,
2013-01-06 08:41:00,31.1,22.5,30.12,WNW,303,3.0,14.0,70,0.00,,OVC021,0.00,VWS V14.01,2013-01-06 14:41:00,
2013-01-06 08:45:00,31.1,22.8,30.14,WNW,293,2.0,14.0,71,0.00,,OVC021,0.00,VWS V14.01,2013-01-06 14:45:00,
2013-01-06 08:46:00,31.1,22.8,30.14,WNW,286,0.0,14.0,71,0.00,,OVC031,0.00,VWS V14.01,2013-01-06 14:46:00,
2013-01-06 08:50:00,31.1,22.8,30.14,NNW,330,9.0,14.0,71,0.00,,OVC031,0.00,VWS V14.01,2013-01-06 14:50:00,
2013-01-06 08:51:00,30.9,22.6,30.14,WNW,303,9.0,14.0,71,0.00,,OVC031,0.00,VWS V14.01,2013-01-06 14:51:00,
2013-01-06 08:55:00,30.9,22.3,30.14,WNW,285,0.0,14.0,70,0.00,,OVC031,0.00,VWS V14.01,2013-01-06 14:55:00,
2013-01-06 08:56:00,30.9,22.3,30.14,West,268,0.0,14.0,70,0.00,,OVC031,0.00,VWS V14.01,2013-01-06 14:56:00,
2013-01-06 09:00:00,30.8,22.2,30.14,WNW,282,6.0,6.0,70,0.00,,OVC031,0.00,VWS V14.01,2013-01-06 15:00:00,
2013-01-06 09:01:00,30.8,22.5,30.14,NW,314,1.0,12.0,71,0.00,,OVC031,0.00,VWS V14.01,2013-01-06 15:01:00,
2013-01-06 09:05:00,30.8,22.2,30.14,West,275,4.0,17.0,70,0.00,,OVC031,0.00,VWS V14.01,2013-01-06 15:05:00,
2013-01-06 09:06:00,30.8,22.5,30.14,NW,321,2.0,17.0,71,0.00,,OVC031,0.00,VWS V14.01,2013-01-06 15:06:00,
2013-01-06 09:10:00,30.6,22.0,30.14,West,273,2.0,17.0,70,0.00,,OVC031,0.00,VWS V14.01,2013-01-06 15:10:00,
2013-01-06 09:11:00,30.6,22.0,30.14,West,276,6.0,17.0,70,0.00,,OVC031,0.00,VWS V14.01,2013-01-06 15:11:00,
2013-01-06 09:15:00,30.5,21.9,30.15,West,275,6.0,17.0,70,0.00,,OVC031,0.00,VWS V14.01,2013-01-06 15:15:00,
2013-01-06 09:16:00,30.5,21.9,30.15,West,271,9.0,17.0,70,0.00,,OVC031,0.00,VWS V14.01,2013-01-06 15:16:00,
2013-01-06 09:20:00,30.3,21.4,30.15,WNW,285,6.0,17.0,69,0.00,,OVC031,0.00,VWS V14.01,2013-01-06 15:20:00,
2013-01-06 09:21:00,30.3,21.4,30.15,NW,304,7.0,17.0,69,0.00,,OVC031,0.00,VWS V14.01,2013-01-06 15:21:00,
2013-01-06 09:25:00,30.3,21.7,30.15,NW,312,2.0,17.0,70,0.00,,OVC031,0.00,VWS V14.01,2013-01-06 15:25:00,
2013-01-06 09:26:00,30.3,21.7,30.15,WNW,295,0.0,17.0,70,0.00,,OVC031,0.00,VWS V14.01,2013-01-06 15:26:00,
2013-01-06 09:27:00,30.3,21.7,30.15,WNW,301,6.0,17.0,70,0.00,,OVC031,0.00,VWS V14.01,2013-01-06 15:27:00,
2013-01-06 09:30:00,30.3,22.0,30.16,WNW,290,0.0,3.0,71,0.00,,OVC031,0.00,VWS V14.01,2013-01-06 15:30:00,
2013-01-06 09:31:00,30.5,22.2,30.16,NNW,343,6.0,13.0,71,0.00,,OVC031,0.00,VWS V14.01,2013-01-06 15:31:00,
2013-01-06 09:32:00,30.5,22.2,30.16,West,272,4.0,13.0,71,0.00,,OVC031,0.00,VWS V14.01,2013-01-06 15:32:00,
2013-01-06 09:35:00,30.5,22.2,30.16,WNW,298,10.0,16.0,71,0.00,,OVC031,0.00,VWS V14.01,2013-01-06 15:35:00,
2013-01-06 09:36:00,30.5,22.2,30.16,NW,312,0.0,16.0,71,0.00,,OVC031,0.00,VWS V14.01,2013-01-06 15:36:00,
2013-01-06 09:37:00,30.5,22.2,30.16,NNW,328,5.0,16.0,71,0.00,,OVC031,0.00,VWS V14.01,2013-01-06 15:37:00,
2013-01-06 09:40:00,30.5,22.2,30.16,NW,319,2.0,16.0,71,0.00,,OVC031,0.00,VWS V14.01,2013-01-06 15:40:00,
2013-01-06 09:41:00,30.5,22.2,30.16,WNW,284,6.0,16.0,71,0.00,,OVC031,0.00,VWS V14.01,2013-01-06 15:41:00,
2013-01-06 09:42:00,30.5,22.2,30.16,West,275,7.0,16.0,71,0.00,,OVC031,0.00,VWS V14.01,2013-01-06 15:42:00,
2013-01-06 09:46:00,30.5,22.2,30.17,WNW,297,6.0,16.0,71,0.00,,OVC023,0.00,VWS V14.01,2013-01-06 15:46:00,
2013-01-06 09:47:00,30.3,22.0,30.17,West,279,2.0,16.0,71,0.00,,OVC023,0.00,VWS V14.01,2013-01-06 15:47:00,
2013-01-06 09:51:00,30.3,22.0,30.17,WNW,288,1.0,16.0,71,0.00,,OVC023,0.00,VWS V14.01,2013-01-06 15:51:00,
2013-01-06 09:52:00,30.3,22.4,30.17,NW,313,1.0,16.0,72,0.00,,OVC023,0.00,VWS V14.01,2013-01-06 15:52:00,
2013-01-06 09:55:00,30.3,22.0,30.17,WNW,298,2.0,16.0,71,0.00,,OVC023,0.00,VWS V14.01,2013-01-06 15:55:00,
2013-01-06 09:56:00,30.3,22.4,30.17,West,263,0.0,16.0,72,0.00,,OVC023,0.00,VWS V14.01,2013-01-06 15:56:00,
2013-01-06 09:57:00,30.3,22.4,30.17,West,279,0.0,16.0,72,0.00,,OVC023,0.00,VWS V14.01,2013-01-06 15:57:00,
2013-01-06 10:00:00,30.3,22.4,30.18,West,277,5.0,16.0,72,0.00,,,0.00,VWS V14.01,2013-01-06 16:00:00,
2013-01-06 10:01:00,30.2,21.9,30.18,NW,305,12.0,12.0,71,0.00,,OVC023,0.00,VWS V14.01,2013-01-06 16:01:00,
2013-01-06 10:02:00,30.2,21.9,30.18,WNW,295,11.0,15.0,71,0.00,,OVC023,0.00,VWS V14.01,2013-01-06 16:02:00,
2013-01-06 10:03:00,30.2,21.9,30.18,WNW,294,11.0,15.0,71,0.00,,OVC023,0.00,VWS V14.01,2013-01-06 16:03:00,
2013-01-06 10:06:00,30.2,22.3,30.18,WNW,296,9.0,15.0,72,0.00,,OVC023,0.00,VWS V14.01,2013-01-06 16:06:00,
2013-01-06 10:07:00,30.2,22.3,30.18,NW,314,10.0,15.0,72,0.00,,OVC023,0.00,VWS V14.01,2013-01-06 16:07:00,
2013-01-06 10:08:00,30.2,22.3,30.18,NW,316,5.0,15.0,72,0.00,,OVC023,0.00,VWS V14.01,2013-01-06 16:08:00,
2013-01-06 10:11:00,30.0,21.8,30.18,West,279,10.0,17.0,71,0.00,,OVC023,0.00,VWS V14.01,2013-01-06 16:11:00,
2013-01-06 10:12:00,30.0,21.8,30.18,NW,315,5.0,17.0,71,0.00,,OVC023,0.00,VWS V14.01,2013-01-06 16:12:00,
2013-01-06 10:13:00,30.0,21.8,30.18,NW,313,2.0,17.0,71,0.00,,OVC023,0.00,VWS V14.01,2013-01-06 16:13:00,
2013-01-06 10:16:00,30.0,21.4,30.18,NNW,338,5.0,18.0,70,0.00,,OVC023,0.00,VWS V14.01,2013-01-06 16:16:00,
2013-01-06 10:17:00,29.9,21.3,30.18,NW,326,10.0,18.0,70,0.00,,OVC023,0.00,VWS V14.01,2013-01-06 16:17:00,
2013-01-06 10:18:00,30.0,21.4,30.18,NW,304,5.0,18.0,70,0.00,,OVC023,0.00,VWS V14.01,2013-01-06 16:18:00,
2013-01-06 10:21:00,30.0,21.4,30.18,WNW,300,16.0,18.0,70,0.00,,OVC023,0.00,VWS V14.01,2013-01-06 16:21:00,
2013-01-06 10:22:00,30.0,21.4,30.18,West,263,11.0,18.0,70,0.00,,OVC023,0.00,VWS V14.01,2013-01-06 16:22:00,
2013-01-06 10:23:00,30.0,21.4,30.18,NW,319,18.0,18.0,70,0.00,,OVC023,0.00,VWS V14.01,2013-01-06 16:23:00,
2013-01-06 10:26:00,29.9,21.0,30.18,NW,319,4.0,18.0,69,0.00,,OVC023,0.00,VWS V14.01,2013-01-06 16:26:00,
2013-01-06 10:27:00,30.0,21.4,30.18,NW,313,0.0,18.0,70,0.00,,OVC023,0.00,VWS V14.01,2013-01-06 16:27:00,
2013-01-06 10:28:00,30.0,21.4,30.18,NW,315,5.0,18.0,70,0.00,,OVC023,0.00,VWS V14.01,2013-01-06 16:28:00,
2013-01-06 10:30:00,30.0,21.4,30.19,WNW,303,3.0,18.0,70,0.00,,,0.00,VWS V14.01,2013-01-06 16:30:00,
2013-01-06 10:31:00,30.0,21.1,30.19,West,271,3.0,15.0,69,0.00,,OVC023,0.00,VWS V14.01,2013-01-06 16:31:00,
2013-01-06 10:32:00,30.0,21.1,30.19,WNW,300,2.0,16.0,69,0.00,,OVC023,0.00,VWS V14.01,2013-01-06 16:32:00,
2013-01-06 10:33:00,30.0,21.1,30.19,WNW,286,1.0,16.0,69,0.00,,OVC023,0.00,VWS V14.01,2013-01-06 16:33:00,
2013-01-06 10:36:00,30.0,21.1,30.19,WNW,285,6.0,20.0,69,0.00,,OVC023,0.00,VWS V14.01,2013-01-06 16:36:00,
2013-01-06 10:37:00,29.9,21.0,30.19,NW,313,2.0,20.0,69,0.00,,OVC023,0.00,VWS V14.01,2013-01-06 16:37:00,
2013-01-06 10:38:00,29.9,21.0,30.19,WNW,300,4.0,20.0,69,0.00,,OVC023,0.00,VWS V14.01,2013-01-06 16:38:00,
2013-01-06 10:41:00,29.9,20.6,30.19,WNW,297,10.0,20.0,68,0.00,,OVC023,0.00,VWS V14.01,2013-01-06 16:41:00,
2013-01-06 10:43:00,29.9,20.6,30.19,WNW,302,5.0,20.0,68,0.00,,OVC023,0.00,VWS V14.01,2013-01-06 16:43:00,
2013-01-06 10:46:00,29.9,21.0,30.20,NW,308,6.0,20.0,69,0.00,,BKN023,0.00,VWS V14.01,2013-01-06 16:46:00,
2013-01-06 10:48:00,30.0,21.1,30.20,NNW,336,4.0,20.0,69,0.00,,BKN023,0.00,VWS V14.01,2013-01-06 16:48:00,
2013-01-06 10:51:00,30.2,21.3,30.20,WNW,290,6.0,20.0,69,0.00,,BKN023,0.00,VWS V14.01,2013-01-06 16:51:00,
2013-01-06 10:52:00,30.2,21.3,30.20,West,271,6.0,20.0,69,0.00,,BKN023,0.00,VWS V14.01,2013-01-06 16:52:00,
2013-01-06 10:53:00,30.2,20.9,30.20,NW,319,2.0,20.0,68,0.00,,BKN023,0.00,VWS V14.01,2013-01-06 16:53:00,
2013-01-06 10:56:00,30.0,20.7,30.20,NW,309,4.0,20.0,68,0.00,,BKN023,0.00,VWS V14.01,2013-01-06 16:56:00,
2013-01-06 10:57:00,30.0,21.1,30.20,NE,39,7.0,20.0,69,0.00,,BKN023,0.00,VWS V14.01,2013-01-06 16:57:00,
2013-01-06 10:58:00,30.0,20.7,30.20,WNW,289,6.0,20.0,68,0.00,,BKN023,0.00,VWS V14.01,2013-01-06 16:58:00,
2013-01-06 11:00:00,29.9,20.6,30.20,WNW,292,2.0,20.0,68,0.00,,,0.00,VWS V14.01,2013-01-06 17:00:00,
2013-01-06 11:02:00,29.7,20.5,30.20,WNW,290,4.0,14.0,68,0.00,,SCT023,0.00,VWS V14.01,2013-01-06 17:02:00,
2013-01-06 11:03:00,29.7,20.5,30.20,NW,323,5.0,16.0,68,0.00,,SCT023,0.00,VWS V14.01,2013-01-06 17:03:00,
2013-01-06 11:07:00,29.6,19.6,30.20,NNW,342,12.0,20.0,66,0.00,,SCT023,0.00,VWS V14.01,2013-01-06 17:07:00,
2013-01-06 11:08:00,29.4,19.8,30.20,North,349,12.0,20.0,67,0.00,,SCT023,0.00,VWS V14.01,2013-01-06 17:08:00,
2013-01-06 11:12:00,29.4,19.8,30.20,North,5,9.0,20.0,67,0.00,,SCT023,0.00,VWS V14.01,2013-01-06 17:12:00,
2013-01-06 11:13:00,29.4,19.8,30.20,WNW,286,7.0,20.0,67,0.00,,SCT023,0.00,VWS V14.01,2013-01-06 17:13:00,
2013-01-06 11:14:00,29.6,20.0,30.20,NNW,346,5.0,20.0,67,0.00,,SCT023,0.00,VWS V14.01,2013-01-06 17:14:00,
2013-01-06 11:17:00,29.7,20.1,30.20,NNW,337,2.0,20.0,67,0.00,,SCT023,0.00,VWS V14.01,2013-01-06 17:17:00,
2013-01-06 11:18:00,29.9,20.3,30.20,NW,323,10.0,20.0,67,0.00,,SCT023,0.00,VWS V14.01,2013-01-06 17:18:00,
2013-01-06 11:19:00,29.9,20.3,30.20,WNW,292,1.0,20.0,67,0.00,,SCT023,0.00,VWS V14.01,2013-01-06 17:19:00,
2013-01-06 11:22:00,30.0,20.4,30.20,WNW,302,10.0,20.0,67,0.00,,SCT023,0.00,VWS V14.01,2013-01-06 17:22:00,
2013-01-06 11:23:00,30.0,20.4,30.20,North,11,10.0,20.0,67,0.00,,SCT023,0.00,VWS V14.01,2013-01-06 17:23:00,
2013-01-06 11:24:00,29.9,20.3,30.20,NNW,337,11.0,20.0,67,0.00,,SCT023,0.00,VWS V14.01,2013-01-06 17:24:00,
2013-01-06 11:27:00,29.7,20.1,30.20,WNW,297,2.0,20.0,67,0.00,,SCT023,0.00,VWS V14.01,2013-01-06 17:27:00,
2013-01-06 11:28:00,29.9,20.3,30.20,WNW,291,4.0,20.0,67,0.00,,SCT023,0.00,VWS V14.01,2013-01-06 17:28:00,
2013-01-06 11:29:00,29.9,20.3,30.20,NW,307,3.0,20.0,67,0.00,,SCT023,0.00,VWS V14.01,2013-01-06 17:29:00,
2013-01-06 11:30:00,29.9,20.3,30.20,NW,307,6.0,20.0,67,0.00,,,0.00,VWS V14.01,2013-01-06 17:30:00,
2013-01-06 11:32:00,30.0,20.4,30.20,NW,306,15.0,15.0,67,0.00,,SCT023,0.00,VWS V14.01,2013-01-06 17:32:00,
2013-01-06 11:34:00,30.0,20.4,30.20,NNW,339,10.0,15.0,67,0.00,,SCT023,0.00,VWS V14.01,2013-01-06 17:34:00,
2013-01-06 11:37:00,30.2,20.9,30.20,WNW,295,0.0,15.0,68,0.00,,SCT023,0.00,VWS V14.01,2013-01-06 17:37:00,
2013-01-06 11:39:00,30.2,20.9,30.20,NW,305,5.0,15.0,68,0.00,,SCT023,0.00,VWS V14.01,2013-01-06 17:39:00,
2013-01-06 11:42:00,30.3,21.0,30.20,WNW,290,2.0,15.0,68,0.00,,SCT023,0.00,VWS V14.01,2013-01-06 17:42:00,
2013-01-06 11:44:00,30.5,21.2,30.20,WNW,294,9.0,15.0,68,0.00,,SCT023,0.00,VWS V14.01,2013-01-06 17:44:00,
2013-01-06 11:47:00,30.3,20.7,30.20,WNW,289,5.0,15.0,67,0.00,,SCT021,0.00,VWS V14.01,2013-01-06 17:47:00,
2013-01-06 11:49:00,30.3,21.0,30.20,WSW,250,7.0,15.0,68,0.00,,SCT021,0.00,VWS V14.01,2013-01-06 17:49:00,
2013-01-06 11:52:00,30.2,20.6,30.20,WNW,303,5.0,15.0,67,0.00,,SCT021,0.00,VWS V14.01,2013-01-06 17:52:00,
2013-01-06 11:54:00,30.2,20.6,30.20,WNW,294,4.0,15.0,67,0.00,,SCT021,0.00,VWS V14.01,2013-01-06 17:54:00,
2013-01-06 11:55:00,30.2,20.6,30.20,WNW,293,5.0,15.0,67,0.00,,SCT021,0.00,VWS V14.01,2013-01-06 17:55:00,
2013-01-06 11:57:00,30.3,21.0,30.20,WNW,295,2.0,15.0,68,0.00,,SCT021,0.00,VWS V14.01,2013-01-06 17:57:00,
2013-01-06 11:59:00,30.6,21.3,30.20,NW,310,5.0,15.0,68,0.00,,SCT021,0.00,VWS V14.01,2013-01-06 17:59:00,
2013-01-06 12:00:00,30.8,21.1,30.20,NW,321,2.0,5.0,67,0.00,,SCT021,0.00,VWS V14.01,2013-01-06 18:00:00,
2013-01-06 12:03:00,30.9,20.9,30.20,NW,310,12.0,15.0,66,0.00,,SCT023,0.00,VWS V14.01,2013-01-06 18:03:00,
2013-01-06 12:04:00,30.6,20.6,30.20,NNW,329,9.0,15.0,66,0.00,,SCT023,0.00,VWS V14.01,2013-01-06 18:04:00,
2013-01-06 12:05:00,30.5,20.1,30.20,NW,304,10.0,15.0,65,0.00,,SCT023,0.00,VWS V14.01,2013-01-06 18:05:00,
2013-01-06 12:08:00,30.3,20.3,30.20,NW,323,11.0,18.0,66,0.00,,SCT023,0.00,VWS V14.01,2013-01-06 18:08:00,
2013-01-06 12:09:00,30.3,20.3,30.20,NNW,330,5.0,18.0,66,0.00,,SCT023,0.00,VWS V14.01,2013-01-06 18:09:00,
2013-01-06 12:10:00,30.3,20.3,30.20,NW,317,4.0,18.0,66,0.00,,SCT023,0.00,VWS V14.01,2013-01-06 18:10:00,
2013-01-06 12:13:00,30.3,20.3,30.20,WNW,284,6.0,18.0,66,0.00,,SCT023,0.00,VWS V14.01,2013-01-06 18:13:00,
2013-01-06 12:14:00,30.5,20.5,30.20,WNW,303,12.0,19.0,66,0.00,,SCT023,0.00,VWS V14.01,2013-01-06 18:14:00,
2013-01-06 12:15:00,30.5,20.5,30.20,NW,316,16.0,19.0,66,0.00,,SCT023,0.00,VWS V14.01,2013-01-06 18:15:00,
2013-01-06 12:18:00,30.5,20.9,30.20,WNW,285,4.0,19.0,67,0.00,,SCT023,0.00,VWS V14.01,2013-01-06 18:18:00,
2013-01-06 12:19:00,30.5,20.5,30.20,WNW,286,4.0,19.0,66,0.00,,SCT023,0.00,VWS V14.01,2013-01-06 18:19:00,
2013-01-06 12:20:00,30.6,20.6,30.20,NW,315,3.0,19.0,66,0.00,,SCT023,0.00,VWS V14.01,2013-01-06 18:20:00,
2013-01-06 12:23:00,30.8,20.8,30.20,NW,323,12.0,19.0,66,0.00,,SCT023,0.00,VWS V14.01,2013-01-06 18:23:00,
2013-01-06 12:25:00,30.8,20.8,30.20,NW,318,4.0,19.0,66,0.00,,SCT023,0.00,VWS V14.01,2013-01-06 18:25:00,
2013-01-06 12:28:00,30.9,21.2,30.20,West,271,7.0,19.0,67,0.00,,SCT023,0.00,VWS V14.01,2013-01-06 18:28:00,
2013-01-06 12:30:00,30.9,21.6,30.20,West,273,4.0,14.0,68,0.00,,SCT023,0.00,VWS V14.01,2013-01-06 18:30:00,
2013-01-06 12:33:00,31.1,21.8,30.20,West,275,3.0,18.0,68,0.00,,SCT023,0.00,VWS V14.01,2013-01-06 18:33:00,
2013-01-06 12:35:00,31.1,21.8,30.20,West,271,1.0,18.0,68,0.00,,SCT023,0.00,VWS V14.01,2013-01-06 18:35:00,
2013-01-06 12:36:00,31.1,21.8,30.20,WNW,301,4.0,18.0,68,0.00,,SCT023,0.00,VWS V14.01,2013-01-06 18:36:00,
2013-01-06 12:39:00,31.2,22.2,30.20,WNW,284,0.0,18.0,69,0.00,,SCT023,0.00,VWS V14.01,2013-01-06 18:39:00,
2013-01-06 12:40:00,31.2,22.2,30.20,West,277,5.0,18.0,69,0.00,,SCT023,0.00,VWS V14.01,2013-01-06 18:40:00,
2013-01-06 12:41:00,31.2,21.9,30.20,WNW,302,4.0,18.0,68,0.00,,SCT023,0.00,VWS V14.01,2013-01-06 18:41:00,
2013-01-06 12:44:00,30.9,21.9,30.21,NW,307,2.0,18.0,69,0.00,,SCT023,0.00,VWS V14.01,2013-01-06 18:44:00,
2013-01-06 12:45:00,31.1,22.1,30.21,NW,311,1.0,18.0,69,0.00,,SCT120,0.00,VWS V14.01,2013-01-06 18:45:00,
2013-01-06 12:46:00,31.2,22.2,30.21,NNW,335,2.0,18.0,69,0.00,,SCT120,0.00,VWS V14.01,2013-01-06 18:46:00,
2013-01-06 12:49:00,31.4,21.7,30.21,West,279,5.0,18.0,67,0.00,,SCT120,0.00,VWS V14.01,2013-01-06 18:49:00,
2013-01-06 12:50:00,31.4,21.7,30.21,North,355,3.0,18.0,67,0.00,,SCT120,0.00,VWS V14.01,2013-01-06 18:50:00,
2013-01-06 12:51:00,31.4,21.7,30.21,WNW,282,9.0,18.0,67,0.00,,SCT120,0.00,VWS V14.01,2013-01-06 18:51:00,
2013-01-06 12:54:00,30.9,21.2,30.21,NW,320,7.0,18.0,67,0.00,,SCT120,0.00,VWS V14.01,2013-01-06 18:54:00,
2013-01-06 12:55:00,30.8,21.1,30.21,WNW,301,3.0,18.0,67,0.00,,SCT120,0.00,VWS V14.01,2013-01-06 18:55:00,
2013-01-06 12:56:00,30.8,21.1,30.21,WNW,294,4.0,18.0,67,0.00,,SCT120,0.00,VWS V14.01,2013-01-06 18:56:00,
2013-01-06 12:59:00,31.1,21.8,30.21,NW,304,0.0,18.0,68,0.00,,SCT120,0.00,VWS V14.01,2013-01-06 18:59:00,
2013-01-06 13:00:00,31.1,21.4,30.21,NW,323,5.0,6.0,67,0.00,,SCT120,0.00,VWS V14.01,2013-01-06 19:00:00,
2013-01-06 13:01:00,31.1,21.4,30.21,NW,306,3.0,7.0,67,0.00,,SCT021,0.00,VWS V14.01,2013-01-06 19:01:00,
2013-01-06 13:04:00,31.4,22.1,30.21,NW,322,5.0,14.0,68,0.00,,SCT021,0.00,VWS V14.01,2013-01-06 19:04:00,
2013-01-06 13:05:00,31.5,22.2,30.21,North,360,2.0,14.0,68,0.00,,SCT021,0.00,VWS V14.01,2013-01-06 19:05:00,
2013-01-06 13:06:00,31.5,22.2,30.21,NNW,329,9.0,14.0,68,0.00,,SCT021,0.00,VWS V14.01,2013-01-06 19:06:00,
2013-01-06 13:09:00,31.8,22.1,30.21,West,279,8.0,14.0,67,0.00,,SCT021,0.00,VWS V14.01,2013-01-06 19:09:00,
2013-01-06 13:10:00,31.8,22.1,30.21,West,276,3.0,14.0,67,0.00,,SCT021,0.00,VWS V14.01,2013-01-06 19:10:00,
2013-01-06 13:11:00,31.8,22.1,30.21,NW,314,9.0,14.0,67,0.00,,SCT021,0.00,VWS V14.01,2013-01-06 19:11:00,
2013-01-06 13:15:00,31.7,21.7,30.21,NW,317,3.0,14.0,66,0.00,,SCT021,0.00,VWS V14.01,2013-01-06 19:15:00,
2013-01-06 13:16:00,31.8,22.1,30.21,NW,319,7.0,14.0,67,0.00,,SCT021,0.00,VWS V14.01,2013-01-06 19:16:00,
2013-01-06 13:17:00,31.8,22.1,30.21,NW,306,4.0,14.0,67,0.00,,SCT021,0.00,VWS V14.01,2013-01-06 19:17:00,
2013-01-06 13:20:00,32.1,22.4,30.21,NNW,340,5.0,14.0,67,0.00,,SCT021,0.00,VWS V14.01,2013-01-06 19:20:00,
2013-01-06 13:21:00,32.1,22.0,30.21,WNW,288,4.0,14.0,66,0.00,,SCT021,0.00,VWS V14.01,2013-01-06 19:21:00,
2013-01-06 13:22:00,32.1,22.0,30.21,NNW,340,6.0,14.0,66,0.00,,SCT021,0.00,VWS V14.01,2013-01-06 19:22:00,
2013-01-06 13:25:00,31.8,21.8,30.21,NW,309,2.0,17.0,66,0.00,,SCT021,0.00,VWS V14.01,2013-01-06 19:25:00,
2013-01-06 13:26:00,31.8,21.8,30.21,North,351,10.0,17.0,66,0.00,,SCT021,0.00,VWS V14.01,2013-01-06 19:26:00,
2013-01-06 13:27:00,31.8,21.8,30.21,WNW,300,3.0,17.0,66,0.00,,SCT021,0.00,VWS V14.01,2013-01-06 19:27:00,
2013-01-06 13:30:00,32.0,21.9,30.21,WNW,284,7.0,12.0,66,0.00,,SCT021,0.00,VWS V14.01,2013-01-06 19:30:00,
2013-01-06 13:31:00,32.0,21.9,30.21,NNW,329,5.0,12.0,66,0.00,,SCT021,0.00,VWS V14.01,2013-01-06 19:31:00,
2013-01-06 13:32:00,32.0,21.9,30.21,WNW,298,3.0,12.0,66,0.00,,SCT021,0.00,VWS V14.01,2013-01-06 19:32:00,
2013-01-06 13:35:00,31.8,21.8,30.21,WNW,293,1.0,14.0,66,0.00,,SCT021,0.00,VWS V14.01,2013-01-06 19:35:00,
2013-01-06 13:36:00,31.8,22.1,30.21,NW,319,4.0,14.0,67,0.00,,SCT021,0.00,VWS V14.01,2013-01-06 19:36:00,
2013-01-06 13:37:00,31.8,21.8,30.21,NNW,338,9.0,14.0,66,0.00,,SCT021,0.00,VWS V14.01,2013-01-06 19:37:00,
2013-01-06 13:41:00,31.8,22.1,30.21,NNW,342,3.0,18.0,67,0.00,,SCT021,0.00,VWS V14.01,2013-01-06 19:41:00,
2013-01-06 13:42:00,31.8,22.1,30.21,NW,316,2.0,18.0,67,0.00,,SCT021,0.00,VWS V14.01,2013-01-06 19:42:00,
2013-01-06 13:46:00,31.7,21.7,30.22,NNW,340,5.0,18.0,66,0.00,,SCT022,0.00,VWS V14.01,2013-01-06 19:46:00,
2013-01-06 13:47:00,31.5,21.5,30.22,NW,318,10.0,18.0,66,0.00,,SCT022,0.00,VWS V14.01,2013-01-06 19:47:00,
2013-01-06 13:51:00,31.7,22.0,30.22,NW,323,10.0,18.0,67,0.00,,SCT022,0.00,VWS V14.01,2013-01-06 19:51:00,
2013-01-06 13:53:00,31.7,22.0,30.22,NW,306,4.0,18.0,67,0.00,,SCT022,0.00,VWS V14.01,2013-01-06 19:53:00,
2013-01-06 13:57:00,31.5,21.8,30.22,NW,318,6.0,22.0,67,0.00,,SCT022,0.00,VWS V14.01,2013-01-06 19:57:00,
2013-01-06 13:59:00,31.5,21.8,30.23,NW,310,3.0,22.0,67,0.00,,SCT022,0.00,VWS V14.01,2013-01-06 19:59:00,
2013-01-06 14:00:00,31.5,21.8,30.23,NNW,345,3.0,22.0,67,0.00,,,0.00,VWS V14.01,2013-01-06 20:00:00,
2013-01-06 14:03:00,31.8,21.8,30.23,NW,317,8.0,22.0,66,0.00,,SCT022,0.00,VWS V14.01,2013-01-06 20:03:00,
2013-01-06 14:04:00,31.8,22.1,30.23,WNW,291,11.0,22.0,67,0.00,,SCT022,0.00,VWS V14.01,2013-01-06 20:04:00,
2013-01-06 14:09:00,32.4,22.0,30.23,NNW,339,4.0,22.0,65,0.00,,SCT022,0.00,VWS V14.01,2013-01-06 20:09:00,
2013-01-06 14:11:00,32.7,22.6,30.23,NW,310,2.0,22.0,66,0.00,,SCT022,0.00,VWS V14.01,2013-01-06 20:11:00,
2013-01-06 14:13:00,32.8,22.3,30.23,West,276,2.0,22.0,65,0.00,,SCT022,0.00,VWS V14.01,2013-01-06 20:13:00,
2013-01-06 14:15:00,33.0,22.5,30.23,NW,321,2.0,22.0,65,0.00,,SCT022,0.00,VWS V14.01,2013-01-06 20:15:00,
2013-01-06 14:16:00,33.0,22.5,30.23,NNW,339,5.0,22.0,65,0.00,,SCT022,0.00,VWS V14.01,2013-01-06 20:16:00,
2013-01-06 14:17:00,33.0,22.5,30.23,NNW,339,5.0,22.0,65,0.00,,SCT022,0.00,VWS V14.01,2013-01-06 20:17:00,
2013-01-06 14:18:00,33.0,22.5,30.23,North,355,9.0,22.0,65,0.00,,SCT022,0.00,VWS V14.01,2013-01-06 20:18:00,
2013-01-06 14:20:00,33.1,22.3,30.23,West,276,6.0,22.0,64,0.00,,SCT022,0.00,VWS V14.01,2013-01-06 20:20:00,
2013-01-06 14:22:00,33.3,22.8,30.23,WNW,298,6.0,22.0,65,0.00,,SCT022,0.00,VWS V14.01,2013-01-06 20:22:00,
2013-01-06 14:23:00,33.3,22.5,30.23,West,279,4.0,22.0,64,0.00,,SCT022,0.00,VWS V14.01,2013-01-06 20:23:00,
2013-01-06 14:26:00,33.1,22.3,30.23,WNW,294,6.0,22.0,64,0.00,,SCT022,0.00,VWS V14.01,2013-01-06 20:26:00,
2013-01-06 14:27:00,32.8,22.0,30.23,West,280,2.0,22.0,64,0.00,,SCT022,0.00,VWS V14.01,2013-01-06 20:27:00,
2013-01-06 14:28:00,32.7,22.2,30.23,NNW,340,0.0,22.0,65,0.00,,SCT022,0.00,VWS V14.01,2013-01-06 20:28:00,
2013-01-06 14:30:00,32.6,22.1,30.24,WNW,298,4.0,22.0,65,0.00,,,0.00,VWS V14.01,2013-01-06 20:30:00,
2013-01-06 14:31:00,32.6,22.1,30.24,NW,319,10.0,10.0,65,0.00,,SCT022,0.00,VWS V14.01,2013-01-06 20:31:00,
2013-01-06 14:32:00,32.4,22.0,30.24,NW,309,5.0,10.0,65,0.00,,SCT022,0.00,VWS V14.01,2013-01-06 20:32:00,
2013-01-06 14:33:00,32.3,21.9,30.24,NW,316,5.0,10.0,65,0.00,,SCT022,0.00,VWS V14.01,2013-01-06 20:33:00,
2013-01-06 14:36:00,32.1,21.7,30.24,North,355,8.0,12.0,65,0.00,,SCT022,0.00,VWS V14.01,2013-01-06 20:36:00,
2013-01-06 14:37:00,32.1,21.7,30.24,NW,304,11.0,12.0,65,0.00,,SCT022,0.00,VWS V14.01,2013-01-06 20:37:00,
2013-01-06 14:38:00,32.1,21.7,30.24,NW,304,5.0,12.0,65,0.00,,SCT022,0.00,VWS V14.01,2013-01-06 20:38:00,
2013-01-06 14:42:00,32.1,21.7,30.24,WNW,288,6.0,12.0,65,0.00,,SCT022,0.00,VWS V14.01,2013-01-06 20:42:00,
2013-01-06 14:43:00,32.1,22.0,30.24,NW,321,2.0,12.0,66,0.00,,SCT022,0.00,VWS V14.01,2013-01-06 20:43:00,
2013-01-06 14:48:00,32.3,21.9,30.25,WNW,296,5.0,18.0,65,0.00,,SCT022,0.00,VWS V14.01,2013-01-06 20:48:00,
2013-01-06 14:49:00,32.1,21.7,30.25,NW,316,2.0,18.0,65,0.00,,SCT022,0.00,VWS V14.01,2013-01-06 20:49:00,
2013-01-06 14:53:00,32.3,21.9,30.25,WNW,285,8.0,18.0,65,0.00,,SCT022,0.00,VWS V14.01,2013-01-06 20:53:00,
2013-01-06 14:54:00,32.3,21.9,30.25,NW,317,5.0,18.0,65,0.00,,SCT022,0.00,VWS V14.01,2013-01-06 20:54:00,
2013-01-06 14:58:00,32.4,22.3,30.25,West,272,9.0,18.0,66,0.00,,SCT022,0.00,VWS V14.01,2013-01-06 20:58:00,
2013-01-06 14:59:00,32.4,22.3,30.26,WNW,301,5.0,18.0,66,0.00,,SCT022,0.00,VWS V14.01,2013-01-06 20:59:00,
2013-01-06 15:00:00,32.4,22.3,30.26,WNW,298,5.0,14.0,66,0.00,,SCT022,0.00,VWS V14.01,2013-01-06 21:00:00,
2013-01-06 15:01:00,32.4,22.0,30.26,NW,315,5.0,14.0,65,0.00,,SCT120,0.00,VWS V14.01,2013-01-06 21:01:00,
2013-01-06 15:04:00,32.4,22.0,30.26,WNW,284,2.0,14.0,65,0.00,,SCT120,0.00,VWS V14.01,2013-01-06 21:04:00,
2013-01-06 15:05:00,32.6,22.1,30.26,WNW,298,0.0,14.0,65,0.00,,SCT120,0.00,VWS V14.01,2013-01-06 21:05:00,
2013-01-06 15:06:00,32.6,22.1,30.26,WNW,302,3.0,14.0,65,0.00,,SCT120,0.00,VWS V14.01,2013-01-06 21:06:00,
2013-01-06 15:09:00,32.7,22.2,30.26,West,281,7.0,14.0,65,0.00,,SCT120,0.00,VWS V14.01,2013-01-06 21:09:00,
2013-01-06 15:11:00,32.7,21.9,30.26,NW,307,2.0,14.0,64,0.00,,SCT120,0.00,VWS V14.01,2013-01-06 21:11:00,
2013-01-06 15:14:00,32.6,21.8,30.27,WNW,296,5.0,14.0,64,0.00,,SCT120,0.00,VWS V14.01,2013-01-06 21:14:00,
2013-01-06 15:16:00,32.4,22.0,30.27,NW,313,7.0,14.0,65,0.00,,SCT120,0.00,VWS V14.01,2013-01-06 21:16:00,
2013-01-06 15:19:00,32.4,22.0,30.27,NW,308,5.0,14.0,65,0.00,,SCT120,0.00,VWS V14.01,2013-01-06 21:19:00,
2013-01-06 15:21:00,32.4,22.0,30.27,WNW,299,3.0,14.0,65,0.00,,SCT120,0.00,VWS V14.01,2013-01-06 21:21:00,
2013-01-06 15:22:00,32.4,22.0,30.27,NW,309,2.0,14.0,65,0.00,,SCT120,0.00,VWS V14.01,2013-01-06 21:22:00,
2013-01-06 15:24:00,32.4,21.6,30.27,NNW,344,6.0,16.0,64,0.00,,SCT120,0.00,VWS V14.01,2013-01-06 21:24:00,
2013-01-06 15:26:00,32.4,21.6,30.27,NW,325,8.0,16.0,64,0.00,,SCT120,0.00,VWS V14.01,2013-01-06 21:26:00,
2013-01-06 15:27:00,32.4,21.6,30.27,NW,317,3.0,16.0,64,0.00,,SCT120,0.00,VWS V14.01,2013-01-06 21:27:00,
2013-01-06 15:29:00,32.4,21.6,30.26,West,273,5.0,16.0,64,0.00,,SCT120,0.00,VWS V14.01,2013-01-06 21:29:00,
2013-01-06 15:30:00,32.4,21.6,30.26,NNW,342,3.0,16.0,64,0.00,,,0.00,VWS V14.01,2013-01-06 21:30:00,
2013-01-06 15:32:00,32.4,21.2,30.26,NW,306,4.0,13.0,63,0.00,,SCT120,0.00,VWS V14.01,2013-01-06 21:32:00,
2013-01-06 15:34:00,32.3,21.1,30.26,NNW,329,5.0,13.0,63,0.00,,SCT120,0.00,VWS V14.01,2013-01-06 21:34:00,
2013-01-06 15:37:00,32.3,21.5,30.26,NNW,328,3.0,13.0,64,0.00,,SCT120,0.00,VWS V14.01,2013-01-06 21:37:00,
2013-01-06 15:39:00,32.3,21.5,30.26,NNW,331,5.0,13.0,64,0.00,,SCT120,0.00,VWS V14.01,2013-01-06 21:39:00,
2013-01-06 15:42:00,32.3,21.5,30.26,NW,322,3.0,13.0,64,0.00,,SCT120,0.00,VWS V14.01,2013-01-06 21:42:00,
2013-01-06 15:44:00,32.3,21.5,30.27,NNW,332,1.0,13.0,64,0.00,,SCT120,0.00,VWS V14.01,2013-01-06 21:44:00,
2013-01-06 15:47:00,32.1,21.3,30.27,WNW,301,2.0,13.0,64,0.00,,CLR,0.00,VWS V14.01,2013-01-06 21:47:00,
2013-01-06 15:49:00,32.1,21.3,30.27,NNW,335,6.0,13.0,64,0.00,,CLR,0.00,VWS V14.01,2013-01-06 21:49:00,
2013-01-06 15:50:00,32.1,21.3,30.27,NW,311,8.0,13.0,64,0.00,,CLR,0.00,VWS V14.01,2013-01-06 21:50:00,
2013-01-06 15:52:00,32.1,21.3,30.27,WNW,302,5.0,13.0,64,0.00,,CLR,0.00,VWS V14.01,2013-01-06 21:52:00,
2013-01-06 15:54:00,32.1,21.3,30.27,NW,316,4.0,13.0,64,0.00,,CLR,0.00,VWS V14.01,2013-01-06 21:54:00,
2013-01-06 15:55:00,32.1,21.3,30.27,NW,304,1.0,13.0,64,0.00,,CLR,0.00,VWS V14.01,2013-01-06 21:55:00,
2013-01-06 15:57:00,32.1,21.7,30.27,NW,322,0.0,13.0,65,0.00,,CLR,0.00,VWS V14.01,2013-01-06 21:57:00,
2013-01-06 16:00:00,32.1,21.7,30.27,WNW,301,0.0,0.0,65,0.00,,CLR,0.00,VWS V14.01,2013-01-06 22:00:00,
2013-01-06 16:02:00,32.1,21.7,30.27,NW,315,3.0,8.0,65,0.00,,CLR,0.00,VWS V14.01,2013-01-06 22:02:00,
2013-01-06 16:03:00,32.1,21.7,30.27,NNW,334,6.0,8.0,65,0.00,,CLR,0.00,VWS V14.01,2013-01-06 22:03:00,
2013-01-06 16:05:00,32.1,21.7,30.27,NNW,332,4.0,8.0,65,0.00,,CLR,0.00,VWS V14.01,2013-01-06 22:05:00,
2013-01-06 16:07:00,32.0,21.6,30.27,NW,316,2.0,8.0,65,0.00,,CLR,0.00,VWS V14.01,2013-01-06 22:07:00,
2013-01-06 16:08:00,32.0,21.6,30.27,NW,316,2.0,8.0,65,0.00,,CLR,0.00,VWS V14.01,2013-01-06 22:08:00,
2013-01-06 16:10:00,32.0,21.6,30.27,NW,319,0.0,8.0,65,0.00,,CLR,0.00,VWS V14.01,2013-01-06 22:10:00,
2013-01-06 16:13:00,32.0,21.6,30.27,NNW,333,6.0,11.0,65,0.00,,CLR,0.00,VWS V14.01,2013-01-06 22:13:00,
2013-01-06 16:15:00,32.0,21.6,30.28,NW,309,1.0,11.0,65,0.00,,CLR,0.00,VWS V14.01,2013-01-06 22:15:00,
2013-01-06 16:18:00,32.0,21.6,30.28,WNW,300,1.0,11.0,65,0.00,,CLR,0.00,VWS V14.01,2013-01-06 22:18:00,
2013-01-06 16:20:00,31.8,21.4,30.28,NNW,329,4.0,11.0,65,0.00,,CLR,0.00,VWS V14.01,2013-01-06 22:20:00,
2013-01-06 16:21:00,31.8,21.4,30.28,NNW,333,3.0,11.0,65,0.00,,CLR,0.00,VWS V14.01,2013-01-06 22:21:00,
2013-01-06 16:23:00,31.8,21.4,30.28,WNW,285,0.0,11.0,65,0.00,,CLR,0.00,VWS V14.01,2013-01-06 22:23:00,
2013-01-06 16:25:00,31.8,21.4,30.28,NW,315,0.0,11.0,65,0.00,,CLR,0.00,VWS V14.01,2013-01-06 22:25:00,
2013-01-06 16:26:00,31.8,21.4,30.28,NW,311,0.0,11.0,65,0.00,,CLR,0.00,VWS V14.01,2013-01-06 22:26:00,
2013-01-06 16:28:00,31.7,21.3,30.28,WNW,301,0.0,11.0,65,0.00,,CLR,0.00,VWS V14.01,2013-01-06 22:28:00,
2013-01-06 16:30:00,31.7,21.7,30.28,NW,323,0.0,4.0,66,0.00,,CLR,0.00,VWS V14.01,2013-01-06 22:30:00,
2013-01-06 16:31:00,31.5,21.5,30.28,West,281,0.0,4.0,66,0.00,,CLR,0.00,VWS V14.01,2013-01-06 22:31:00,
2013-01-06 16:33:00,31.5,21.5,30.28,NW,316,0.0,4.0,66,0.00,,CLR,0.00,VWS V14.01,2013-01-06 22:33:00,
2013-01-06 16:34:00,31.5,21.5,30.28,NW,313,0.0,4.0,66,0.00,,CLR,0.00,VWS V14.01,2013-01-06 22:34:00,
2013-01-06 16:36:00,31.5,21.5,30.28,WNW,284,0.0,4.0,66,0.00,,CLR,0.00,VWS V14.01,2013-01-06 22:36:00,
2013-01-06 16:38:00,31.4,21.4,30.28,WNW,303,0.0,4.0,66,0.00,,CLR,0.00,VWS V14.01,2013-01-06 22:38:00,
2013-01-06 16:39:00,31.4,21.4,30.28,WNW,303,0.0,4.0,66,0.00,,CLR,0.00,VWS V14.01,2013-01-06 22:39:00,
2013-01-06 16:41:00,31.2,21.5,30.28,NW,316,3.0,4.0,67,0.00,,CLR,0.00,VWS V14.01,2013-01-06 22:41:00,
2013-01-06 16:42:00,31.2,21.5,30.28,NW,306,0.0,4.0,67,0.00,,CLR,0.00,VWS V14.01,2013-01-06 22:42:00,
2013-01-06 16:44:00,31.2,21.5,30.28,NW,318,0.0,4.0,67,0.00,,CLR,0.00,VWS V14.01,2013-01-06 22:44:00,
2013-01-06 16:46:00,31.1,21.4,30.28,WNW,294,1.0,4.0,67,0.00,,CLR,0.00,VWS V14.01,2013-01-06 22:46:00,
2013-01-06 16:47:00,31.1,21.4,30.28,WNW,294,0.0,4.0,67,0.00,,CLR,0.00,VWS V14.01,2013-01-06 22:47:00,
2013-01-06 16:49:00,30.9,21.2,30.28,WNW,294,0.0,4.0,67,0.00,,CLR,0.00,VWS V14.01,2013-01-06 22:49:00,
2013-01-06 16:51:00,30.8,21.5,30.28,WNW,294,0.0,4.0,68,0.00,,CLR,0.00,VWS V14.01,2013-01-06 22:51:00,
2013-01-06 16:52:00,30.8,21.5,30.28,WNW,294,0.0,4.0,68,0.00,,CLR,0.00,VWS V14.01,2013-01-06 22:52:00,
2013-01-06 16:54:00,30.6,21.3,30.28,WNW,296,0.0,4.0,68,0.00,,CLR,0.00,VWS V14.01,2013-01-06 22:54:00,
2013-01-06 16:57:00,30.6,21.6,30.28,WNW,297,0.0,4.0,69,0.00,,CLR,0.00,VWS V14.01,2013-01-06 22:57:00,
2013-01-06 16:59:00,30.5,21.6,30.29,WNW,297,0.0,4.0,69,0.00,,CLR,0.00,VWS V14.01,2013-01-06 22:59:00,
2013-01-06 17:00:00,30.5,21.2,30.29,WNW,297,0.0,4.0,68,0.00,,,0.00,VWS V14.01,2013-01-06 23:00:00,
2013-01-06 17:01:00,30.5,21.2,30.29,WNW,297,0.0,0.0,68,0.00,,CLR,0.00,VWS V14.01,2013-01-06 23:01:00,
2013-01-06 17:02:00,30.5,21.6,30.29,WNW,299,0.0,1.0,69,0.00,,CLR,0.00,VWS V14.01,2013-01-06 23:02:00,
2013-01-06 17:04:00,30.3,21.4,30.29,WNW,299,0.0,1.0,69,0.00,,CLR,0.00,VWS V14.01,2013-01-06 23:04:00,
2013-01-06 17:07:00,30.2,21.3,30.29,WNW,299,0.0,1.0,69,0.00,,CLR,0.00,VWS V14.01,2013-01-06 23:07:00,
2013-01-06 17:09:00,30.2,21.3,30.29,WNW,299,0.0,1.0,69,0.00,,CLR,0.00,VWS V14.01,2013-01-06 23:09:00,
2013-01-06 17:12:00,30.0,21.1,30.29,WNW,299,0.0,1.0,69,0.00,,CLR,0.00,VWS V14.01,2013-01-06 23:12:00,
2013-01-06 17:14:00,29.9,21.0,30.30,WNW,299,0.0,1.0,69,0.00,,CLR,0.00,VWS V14.01,2013-01-06 23:14:00,
2013-01-06 17:15:00,29.9,21.0,30.30,WNW,299,0.0,1.0,69,0.00,,CLR,0.00,VWS V14.01,2013-01-06 23:15:00,
2013-01-06 17:17:00,29.7,20.8,30.30,WNW,299,0.0,1.0,69,0.00,,CLR,0.00,VWS V14.01,2013-01-06 23:17:00,
2013-01-06 17:19:00,29.7,20.8,30.30,WNW,299,0.0,1.0,69,0.00,,CLR,0.00,VWS V14.01,2013-01-06 23:19:00,
2013-01-06 17:20:00,29.7,20.8,30.30,WNW,299,0.0,1.0,69,0.00,,CLR,0.00,VWS V14.01,2013-01-06 23:20:00,
2013-01-06 17:22:00,29.6,20.7,30.30,WNW,299,0.0,1.0,69,0.00,,CLR,0.00,VWS V14.01,2013-01-06 23:22:00,
2013-01-06 17:23:00,29.6,20.7,30.30,WNW,299,0.0,1.0,69,0.00,,CLR,0.00,VWS V14.01,2013-01-06 23:23:00,
2013-01-06 17:24:00,29.6,20.7,30.30,WNW,299,0.0,1.0,69,0.00,,CLR,0.00,VWS V14.01,2013-01-06 23:24:00,
2013-01-06 17:25:00,29.6,20.7,30.30,WNW,299,0.0,1.0,69,0.00,,CLR,0.00,VWS V14.01,2013-01-06 23:25:00,
2013-01-06 17:27:00,29.4,20.5,30.30,WNW,299,0.0,1.0,69,0.00,,CLR,0.00,VWS V14.01,2013-01-06 23:27:00,
2013-01-06 17:28:00,29.4,20.5,30.30,WNW,299,0.0,1.0,69,0.00,,CLR,0.00,VWS V14.01,2013-01-06 23:28:00,
2013-01-06 17:29:00,29.4,20.5,30.31,WNW,300,0.0,1.0,69,0.00,,CLR,0.00,VWS V14.01,2013-01-06 23:29:00,
2013-01-06 17:30:00,29.4,20.5,30.31,WNW,299,0.0,0.0,69,0.00,,CLR,0.00,VWS V14.01,2013-01-06 23:30:00,
2013-01-06 17:33:00,29.3,20.7,30.31,WNW,299,0.0,0.0,70,0.00,,CLR,0.00,VWS V14.01,2013-01-06 23:33:00,
2013-01-06 17:35:00,29.3,20.7,30.31,WNW,300,0.0,0.0,70,0.00,,CLR,0.00,VWS V14.01,2013-01-06 23:35:00,
2013-01-06 17:38:00,29.2,20.6,30.31,WNW,300,0.0,0.0,70,0.00,,CLR,0.00,VWS V14.01,2013-01-06 23:38:00,
2013-01-06 17:40:00,29.2,20.6,30.31,WNW,299,0.0,0.0,70,0.00,,CLR,0.00,VWS V14.01,2013-01-06 23:40:00,
2013-01-06 17:43:00,29.0,20.5,30.31,WNW,299,0.0,0.0,70,0.00,,CLR,0.00,VWS V14.01,2013-01-06 23:43:00,
2013-01-06 17:45:00,28.9,20.4,30.31,WNW,299,0.0,0.0,70,0.00,,CLR,0.00,VWS V14.01,2013-01-06 23:45:00,
2013-01-06 17:48:00,28.9,20.4,30.31,WNW,300,0.0,0.0,70,0.00,,CLR,0.00,VWS V14.01,2013-01-06 23:48:00,
2013-01-06 17:50:00,28.7,20.2,30.31,WNW,299,0.0,0.0,70,0.00,,CLR,0.00,VWS V14.01,2013-01-06 23:50:00,
2013-01-06 17:53:00,28.6,20.4,30.31,WNW,300,0.0,0.0,71,0.00,,CLR,0.00,VWS V14.01,2013-01-06 23:53:00,
2013-01-06 17:54:00,28.6,20.4,30.31,WNW,300,0.0,0.0,71,0.00,,CLR,0.00,VWS V14.01,2013-01-06 23:54:00,
2013-01-06 17:55:00,28.6,20.4,30.31,WNW,299,0.0,0.0,71,0.00,,CLR,0.00,VWS V14.01,2013-01-06 23:55:00,
2013-01-06 17:56:00,28.4,20.2,30.31,WNW,300,0.0,0.0,71,0.00,,CLR,0.00,VWS V14.01,2013-01-06 23:56:00,
2013-01-06 17:58:00,28.4,20.2,30.31,WNW,299,0.0,0.0,71,0.00,,CLR,0.00,VWS V14.01,2013-01-06 23:58:00,
2013-01-06 17:59:00,28.4,20.2,30.33,WNW,299,0.0,0.0,71,0.00,,CLR,0.00,VWS V14.01,2013-01-06 23:59:00,
2013-01-06 18:00:00,28.3,20.1,30.33,WNW,299,0.0,0.0,71,0.00,,CLR,0.00,VWS V14.01,2013-01-07 00:00:00,
2013-01-06 18:01:00,28.3,20.1,30.33,WNW,299,0.0,0.0,71,0.00,,CLR,0.00,VWS V14.01,2013-01-07 00:01:00,
2013-01-06 18:03:00,28.3,20.4,30.33,WNW,300,0.0,0.0,72,0.00,,CLR,0.00,VWS V14.01,2013-01-07 00:03:00,
2013-01-06 18:04:00,28.3,20.4,30.33,WNW,300,0.0,0.0,72,0.00,,CLR,0.00,VWS V14.01,2013-01-07 00:04:00,
2013-01-06 18:05:00,28.3,20.4,30.33,WNW,300,0.0,0.0,72,0.00,,CLR,0.00,VWS V14.01,2013-01-07 00:05:00,
2013-01-06 18:06:00,28.3,20.4,30.33,WNW,299,0.0,0.0,72,0.00,,CLR,0.00,VWS V14.01,2013-01-07 00:06:00,
2013-01-06 18:08:00,28.1,20.2,30.33,WNW,300,0.0,0.0,72,0.00,,CLR,0.00,VWS V14.01,2013-01-07 00:08:00,
2013-01-06 18:09:00,28.1,20.2,30.33,WNW,299,0.0,0.0,72,0.00,,CLR,0.00,VWS V14.01,2013-01-07 00:09:00,
2013-01-06 18:10:00,28.1,20.2,30.33,WNW,300,0.0,0.0,72,0.00,,CLR,0.00,VWS V14.01,2013-01-07 00:10:00,
2013-01-06 18:11:00,28.1,20.2,30.33,WNW,299,0.0,0.0,72,0.00,,CLR,0.00,VWS V14.01,2013-01-07 00:11:00,
2013-01-06 18:13:00,28.1,20.6,30.33,WNW,299,0.0,0.0,73,0.00,,CLR,0.00,VWS V14.01,2013-01-07 00:13:00,
2013-01-06 18:15:00,28.1,20.6,30.33,WNW,299,0.0,0.0,73,0.00,,CLR,0.00,VWS V14.01,2013-01-07 00:15:00,
2013-01-06 18:16:00,28.1,20.6,30.33,WNW,299,0.0,0.0,73,0.00,,CLR,0.00,VWS V14.01,2013-01-07 00:16:00,
2013-01-06 18:19:00,28.1,20.6,30.33,WNW,299,0.0,0.0,73,0.00,,CLR,0.00,VWS V14.01,2013-01-07 00:19:00,
2013-01-06 18:20:00,28.1,20.6,30.33,WNW,299,0.0,0.0,73,0.00,,CLR,0.00,VWS V14.01,2013-01-07 00:20:00,
2013-01-06 18:21:00,28.1,20.6,30.33,WNW,299,0.0,0.0,73,0.00,,CLR,0.00,VWS V14.01,2013-01-07 00:21:00,
2013-01-06 18:24:00,28.0,20.5,30.33,WNW,300,0.0,0.0,73,0.00,,CLR,0.00,VWS V14.01,2013-01-07 00:24:00,
2013-01-06 18:25:00,28.0,20.5,30.33,WNW,299,0.0,0.0,73,0.00,,CLR,0.00,VWS V14.01,2013-01-07 00:25:00,
2013-01-06 18:26:00,28.0,20.5,30.33,WNW,300,0.0,0.0,73,0.00,,CLR,0.00,VWS V14.01,2013-01-07 00:26:00,
2013-01-06 18:29:00,28.0,20.5,30.33,WNW,299,0.0,0.0,73,0.00,,CLR,0.00,VWS V14.01,2013-01-07 00:29:00,
2013-01-06 18:30:00,28.0,20.5,30.33,WNW,299,0.0,0.0,73,0.00,,CLR,0.00,VWS V14.01,2013-01-07 00:30:00,
2013-01-06 18:31:00,28.0,20.5,30.33,WNW,300,0.0,0.0,73,0.00,,CLR,0.00,VWS V14.01,2013-01-07 00:31:00,
2013-01-06 18:34:00,28.0,20.8,30.33,WNW,299,0.0,0.0,74,0.00,,CLR,0.00,VWS V14.01,2013-01-07 00:34:00,
2013-01-06 18:35:00,27.8,20.6,30.33,WNW,299,0.0,0.0,74,0.00,,CLR,0.00,VWS V14.01,2013-01-07 00:35:00,
2013-01-06 18:36:00,27.8,20.6,30.33,WNW,300,0.0,0.0,74,0.00,,CLR,0.00,VWS V14.01,2013-01-07 00:36:00,
2013-01-06 18:39:00,27.8,20.6,30.33,WNW,300,0.0,0.0,74,0.00,,CLR,0.00,VWS V14.01,2013-01-07 00:39:00,
2013-01-06 18:41:00,27.8,20.6,30.33,WNW,300,0.0,0.0,74,0.00,,CLR,0.00,VWS V14.01,2013-01-07 00:41:00,
2013-01-06 18:42:00,27.8,20.6,30.33,WNW,299,0.0,0.0,74,0.00,,CLR,0.00,VWS V14.01,2013-01-07 00:42:00,
2013-01-06 18:44:00,27.8,20.6,30.33,WNW,300,0.0,0.0,74,0.00,,CLR,0.00,VWS V14.01,2013-01-07 00:44:00,
2013-01-06 18:46:00,27.7,20.5,30.33,WNW,299,0.0,0.0,74,0.00,,CLR,0.00,VWS V14.01,2013-01-07 00:46:00,
2013-01-06 18:47:00,27.7,20.5,30.33,WNW,300,0.0,0.0,74,0.00,,CLR,0.00,VWS V14.01,2013-01-07 00:47:00,
2013-01-06 18:49:00,27.7,20.5,30.33,WNW,299,0.0,0.0,74,0.00,,CLR,0.00,VWS V14.01,2013-01-07 00:49:00,
2013-01-06 18:51:00,27.5,20.3,30.33,WNW,300,0.0,0.0,74,0.00,,CLR,0.00,VWS V14.01,2013-01-07 00:51:00,
2013-01-06 18:52:00,27.5,20.3,30.33,WNW,299,0.0,0.0,74,0.00,,CLR,0.00,VWS V14.01,2013-01-07 00:52:00,
2013-01-06 18:54:00,27.4,20.2,30.33,WNW,299,0.0,0.0,74,0.00,,CLR,0.00,VWS V14.01,2013-01-07 00:54:00,
2013-01-06 18:57:00,27.2,20.0,30.33,WNW,300,0.0,0.0,74,0.00,,CLR,0.00,VWS V14.01,2013-01-07 00:57:00,
2013-01-06 18:59:00,27.1,19.9,30.34,WNW,299,0.0,0.0,74,0.00,,CLR,0.00,VWS V14.01,2013-01-07 00:59:00,
2013-01-06 19:00:00,27.1,19.9,30.34,WNW,299,0.0,0.0,74,0.00,,,0.00,VWS V14.01,2013-01-07 01:00:00,
2013-01-06 19:02:00,27.1,20.2,30.34,WNW,300,0.0,0.0,75,0.00,,CLR,0.00,VWS V14.01,2013-01-07 01:02:00,
2013-01-06 19:04:00,26.9,20.0,30.34,WNW,299,0.0,0.0,75,0.00,,CLR,0.00,VWS V14.01,2013-01-07 01:04:00,
2013-01-06 19:07:00,26.9,20.0,30.34,WNW,300,0.0,0.0,75,0.00,,CLR,0.00,VWS V14.01,2013-01-07 01:07:00,
2013-01-06 19:08:00,26.8,20.0,30.34,WNW,299,0.0,0.0,75,0.00,,CLR,0.00,VWS V14.01,2013-01-07 01:08:00,
2013-01-06 19:10:00,26.8,20.0,30.34,WNW,299,0.0,0.0,75,0.00,,CLR,0.00,VWS V14.01,2013-01-07 01:10:00,
2013-01-06 19:12:00,26.6,19.8,30.34,WNW,299,0.0,0.0,75,0.00,,CLR,0.00,VWS V14.01,2013-01-07 01:12:00,
2013-01-06 19:13:00,26.6,19.8,30.34,WNW,299,0.0,0.0,75,0.00,,CLR,0.00,VWS V14.01,2013-01-07 01:13:00,
2013-01-06 19:15:00,26.6,19.8,30.34,WNW,299,0.0,0.0,75,0.00,,CLR,0.00,VWS V14.01,2013-01-07 01:15:00,
2013-01-06 19:17:00,26.5,19.7,30.34,WNW,300,0.0,0.0,75,0.00,,CLR,0.00,VWS V14.01,2013-01-07 01:17:00,
2013-01-06 19:18:00,26.3,19.5,30.34,WNW,299,0.0,0.0,75,0.00,,CLR,0.00,VWS V14.01,2013-01-07 01:18:00,
2013-01-06 19:20:00,26.2,19.7,30.34,WNW,300,0.0,0.0,76,0.00,,CLR,0.00,VWS V14.01,2013-01-07 01:20:00,
2013-01-06 19:22:00,26.0,19.5,30.34,WNW,299,0.0,0.0,76,0.00,,CLR,0.00,VWS V14.01,2013-01-07 01:22:00,
2013-01-06 19:23:00,26.0,19.5,30.34,WNW,300,0.0,0.0,76,0.00,,CLR,0.00,VWS V14.01,2013-01-07 01:23:00,
2013-01-06 19:25:00,26.0,19.5,30.34,WNW,300,0.0,0.0,76,0.00,,CLR,0.00,VWS V14.01,2013-01-07 01:25:00,
2013-01-06 19:27:00,25.9,19.7,30.34,WNW,299,0.0,0.0,77,0.00,,CLR,0.00,VWS V14.01,2013-01-07 01:27:00,
2013-01-06 19:28:00,25.9,19.7,30.34,WNW,300,0.0,0.0,77,0.00,,CLR,0.00,VWS V14.01,2013-01-07 01:28:00,
2013-01-06 19:30:00,25.9,19.7,30.35,WNW,299,0.0,0.0,77,0.00,,CLR,0.00,VWS V14.01,2013-01-07 01:30:00,
2013-01-06 19:32:00,25.9,19.7,30.35,WNW,299,0.0,0.0,77,0.00,,CLR,0.00,VWS V14.01,2013-01-07 01:32:00,
2013-01-06 19:33:00,25.7,19.5,30.35,WNW,300,0.0,0.0,77,0.00,,CLR,0.00,VWS V14.01,2013-01-07 01:33:00,
2013-01-06 19:35:00,25.7,19.5,30.35,WNW,300,0.0,0.0,77,0.00,,CLR,0.00,VWS V14.01,2013-01-07 01:35:00,
2013-01-06 19:37:00,25.7,19.5,30.35,WNW,300,0.0,0.0,77,0.00,,CLR,0.00,VWS V14.01,2013-01-07 01:37:00,
2013-01-06 19:38:00,25.7,19.5,30.35,WNW,299,0.0,0.0,77,0.00,,CLR,0.00,VWS V14.01,2013-01-07 01:38:00,
2013-01-06 19:40:00,25.7,19.5,30.35,WNW,300,0.0,0.0,77,0.00,,CLR,0.00,VWS V14.01,2013-01-07 01:40:00,
2013-01-06 19:42:00,25.6,19.4,30.35,WNW,299,0.0,0.0,77,0.00,,CLR,0.00,VWS V14.01,2013-01-07 01:42:00,
2013-01-06 19:43:00,25.6,19.4,30.35,WNW,299,0.0,0.0,77,0.00,,CLR,0.00,VWS V14.01,2013-01-07 01:43:00,
2013-01-06 19:46:00,25.6,19.7,30.35,WNW,299,0.0,0.0,78,0.00,,CLR,0.00,VWS V14.01,2013-01-07 01:46:00,
2013-01-06 19:48:00,25.5,19.6,30.35,WNW,299,0.0,0.0,78,0.00,,CLR,0.00,VWS V14.01,2013-01-07 01:48:00,
2013-01-06 19:49:00,25.5,19.6,30.35,WNW,299,0.0,0.0,78,0.00,,CLR,0.00,VWS V14.01,2013-01-07 01:49:00,
2013-01-06 19:51:00,25.5,19.6,30.35,WNW,300,0.0,0.0,78,0.00,,CLR,0.00,VWS V14.01,2013-01-07 01:51:00,
2013-01-06 19:53:00,25.5,19.6,30.35,WNW,299,0.0,0.0,78,0.00,,CLR,0.00,VWS V14.01,2013-01-07 01:53:00,
2013-01-06 19:54:00,25.5,19.6,30.35,WNW,299,0.0,0.0,78,0.00,,CLR,0.00,VWS V14.01,2013-01-07 01:54:00,
2013-01-06 19:56:00,25.5,19.6,30.35,WNW,299,0.0,0.0,78,0.00,,CLR,0.00,VWS V14.01,2013-01-07 01:56:00,
2013-01-06 19:58:00,25.3,19.4,30.35,WNW,299,0.0,0.0,78,0.00,,CLR,0.00,VWS V14.01,2013-01-07 01:58:00,
2013-01-06 19:59:00,25.3,19.7,30.35,WNW,300,0.0,0.0,79,0.00,,CLR,0.00,VWS V14.01,2013-01-07 01:59:00,
2013-01-06 20:00:00,25.3,19.7,30.35,WNW,300,0.0,0.0,79,0.00,,,0.00,VWS V14.01,2013-01-07 02:00:00,
2013-01-06 20:01:00,25.3,19.7,30.35,WNW,299,0.0,0.0,79,0.00,,CLR,0.00,VWS V14.01,2013-01-07 02:01:00,
2013-01-06 20:03:00,25.2,19.6,30.35,WNW,299,0.0,0.0,79,0.00,,CLR,0.00,VWS V14.01,2013-01-07 02:03:00,
2013-01-06 20:04:00,25.2,19.6,30.35,WNW,300,0.0,0.0,79,0.00,,CLR,0.00,VWS V14.01,2013-01-07 02:04:00,
2013-01-06 20:06:00,25.0,19.4,30.35,WNW,299,0.0,0.0,79,0.00,,CLR,0.00,VWS V14.01,2013-01-07 02:06:00,
2013-01-06 20:08:00,24.9,19.3,30.35,WNW,300,0.0,0.0,79,0.00,,CLR,0.00,VWS V14.01,2013-01-07 02:08:00,
2013-01-06 20:09:00,24.9,19.3,30.35,WNW,300,0.0,0.0,79,0.00,,CLR,0.00,VWS V14.01,2013-01-07 02:09:00,
2013-01-06 20:11:00,24.7,19.1,30.35,WNW,300,0.0,0.0,79,0.00,,CLR,0.00,VWS V14.01,2013-01-07 02:11:00,
2013-01-06 20:14:00,24.6,19.0,30.35,WNW,299,0.0,0.0,79,0.00,,CLR,0.00,VWS V14.01,2013-01-07 02:14:00,
2013-01-06 20:16:00,24.6,19.3,30.35,WNW,299,0.0,0.0,80,0.00,,CLR,0.00,VWS V14.01,2013-01-07 02:16:00,
2013-01-06 20:19:00,24.6,19.3,30.35,WNW,300,0.0,0.0,80,0.00,,CLR,0.00,VWS V14.01,2013-01-07 02:19:00,
2013-01-06 20:21:00,24.6,19.3,30.35,WNW,300,0.0,0.0,80,0.00,,CLR,0.00,VWS V14.01,2013-01-07 02:21:00,
2013-01-06 20:24:00,24.7,19.4,30.35,WNW,300,0.0,0.0,80,0.00,,CLR,0.00,VWS V14.01,2013-01-07 02:24:00,
2013-01-06 20:26:00,24.6,19.3,30.35,WNW,299,0.0,0.0,80,0.00,,CLR,0.00,VWS V14.01,2013-01-07 02:26:00,
2013-01-06 20:29:00,24.6,19.3,30.35,WNW,299,0.0,0.0,80,0.00,,CLR,0.00,VWS V14.01,2013-01-07 02:29:00,
2013-01-06 20:30:00,24.6,19.3,30.35,WNW,299,0.0,0.0,80,0.00,,CLR,0.00,VWS V14.01,2013-01-07 02:30:00,
2013-01-06 20:31:00,24.6,19.3,30.35,WNW,299,0.0,0.0,80,0.00,,CLR,0.00,VWS V14.01,2013-01-07 02:31:00,
2013-01-06 20:34:00,24.4,19.1,30.35,WNW,300,0.0,0.0,80,0.00,,CLR,0.00,VWS V14.01,2013-01-07 02:34:00,
2013-01-06 20:35:00,24.4,19.1,30.35,WNW,300,0.0,0.0,80,0.00,,CLR,0.00,VWS V14.01,2013-01-07 02:35:00,
2013-01-06 20:36:00,24.4,19.1,30.35,WNW,300,0.0,0.0,80,0.00,,CLR,0.00,VWS V14.01,2013-01-07 02:36:00,
2013-01-06 20:39:00,24.3,19.0,30.35,WNW,299,0.0,0.0,80,0.00,,CLR,0.00,VWS V14.01,2013-01-07 02:39:00,
2013-01-06 20:40:00,24.3,19.3,30.35,WNW,299,0.0,0.0,81,0.00,,CLR,0.00,VWS V14.01,2013-01-07 02:40:00,
2013-01-06 20:41:00,24.3,19.3,30.35,WNW,299,0.0,0.0,81,0.00,,CLR,0.00,VWS V14.01,2013-01-07 02:41:00,
2013-01-06 20:44:00,24.1,19.1,30.35,WNW,300,0.0,0.0,81,0.00,,CLR,0.00,VWS V14.01,2013-01-07 02:44:00,
2013-01-06 20:45:00,24.1,19.1,30.35,WNW,299,0.0,0.0,81,0.00,,CLR,0.00,VWS V14.01,2013-01-07 02:45:00,
2013-01-06 20:46:00,24.1,19.1,30.35,WNW,299,0.0,0.0,81,0.00,,CLR,0.00,VWS V14.01,2013-01-07 02:46:00,
2013-01-06 20:50:00,24.0,19.0,30.35,WNW,300,0.0,0.0,81,0.00,,CLR,0.00,VWS V14.01,2013-01-07 02:50:00,
2013-01-06 20:51:00,24.0,19.0,30.35,WNW,299,0.0,0.0,81,0.00,,CLR,0.00,VWS V14.01,2013-01-07 02:51:00,
2013-01-06 20:55:00,24.1,19.1,30.35,WNW,299,0.0,0.0,81,0.00,,CLR,0.00,VWS V14.01,2013-01-07 02:55:00,
2013-01-06 20:56:00,24.1,19.1,30.35,WNW,299,0.0,0.0,81,0.00,,CLR,0.00,VWS V14.01,2013-01-07 02:56:00,
2013-01-06 21:00:00,24.1,19.1,30.35,WNW,299,0.0,0.0,81,0.00,,CLR,0.00,VWS V14.01,2013-01-07 03:00:00,
2013-01-06 21:01:00,24.0,19.0,30.35,WNW,300,0.0,0.0,81,0.00,,CLR,0.00,VWS V14.01,2013-01-07 03:01:00,
2013-01-06 21:05:00,23.8,18.8,30.35,WNW,300,0.0,0.0,81,0.00,,CLR,0.00,VWS V14.01,2013-01-07 03:05:00,
2013-01-06 21:06:00,23.7,18.7,30.35,WNW,299,0.0,0.0,81,0.00,,CLR,0.00,VWS V14.01,2013-01-07 03:06:00,
2013-01-06 21:10:00,23.4,18.4,30.35,WNW,300,0.0,0.0,81,0.00,,CLR,0.00,VWS V14.01,2013-01-07 03:10:00,
2013-01-06 21:11:00,23.4,18.4,30.35,WNW,300,0.0,0.0,81,0.00,,CLR,0.00,VWS V14.01,2013-01-07 03:11:00,
2013-01-06 21:15:00,23.2,18.5,30.35,WNW,299,0.0,0.0,82,0.00,,CLR,0.00,VWS V14.01,2013-01-07 03:15:00,
2013-01-06 21:16:00,23.2,18.5,30.35,WNW,299,0.0,0.0,82,0.00,,CLR,0.00,VWS V14.01,2013-01-07 03:16:00,
2013-01-06 21:20:00,23.2,18.5,30.35,WNW,300,0.0,0.0,82,0.00,,CLR,0.00,VWS V14.01,2013-01-07 03:20:00,
2013-01-06 21:21:00,23.2,18.5,30.35,WNW,299,0.0,0.0,82,0.00,,CLR,0.00,VWS V14.01,2013-01-07 03:21:00,
2013-01-06 21:22:00,23.4,18.7,30.35,WNW,299,0.0,0.0,82,0.00,,CLR,0.00,VWS V14.01,2013-01-07 03:22:00,
2013-01-06 21:25:00,23.4,18.7,30.35,WNW,299,0.0,0.0,82,0.00,,CLR,0.00,VWS V14.01,2013-01-07 03:25:00,
2013-01-06 21:26:00,23.5,19.1,30.35,WNW,300,0.0,0.0,83,0.00,,CLR,0.00,VWS V14.01,2013-01-07 03:26:00,
2013-01-06 21:27:00,23.5,18.8,30.35,WNW,300,0.0,0.0,82,0.00,,CLR,0.00,VWS V14.01,2013-01-07 03:27:00,
2013-01-06 21:30:00,23.5,18.8,30.35,WNW,300,0.0,0.0,82,0.00,,CLR,0.00,VWS V14.01,2013-01-07 03:30:00,
2013-01-06 21:31:00,23.5,18.8,30.35,WNW,299,0.0,0.0,82,0.00,,CLR,0.00,VWS V14.01,2013-01-07 03:31:00,
2013-01-06 21:32:00,23.5,18.8,30.35,WNW,300,0.0,0.0,82,0.00,,CLR,0.00,VWS V14.01,2013-01-07 03:32:00,
2013-01-06 21:35:00,23.4,18.7,30.35,WNW,299,0.0,0.0,82,0.00,,CLR,0.00,VWS V14.01,2013-01-07 03:35:00,
2013-01-06 21:36:00,23.4,18.7,30.35,WNW,300,0.0,0.0,82,0.00,,CLR,0.00,VWS V14.01,2013-01-07 03:36:00,
2013-01-06 21:37:00,23.4,18.7,30.35,WNW,300,0.0,0.0,82,0.00,,CLR,0.00,VWS V14.01,2013-01-07 03:37:00,
2013-01-06 21:40:00,23.2,18.5,30.35,WNW,299,0.0,0.0,82,0.00,,CLR,0.00,VWS V14.01,2013-01-07 03:40:00,
2013-01-06 21:41:00,23.2,18.5,30.35,WNW,300,0.0,0.0,82,0.00,,CLR,0.00,VWS V14.01,2013-01-07 03:41:00,
2013-01-06 21:42:00,23.2,18.5,30.35,WNW,299,0.0,0.0,82,0.00,,CLR,0.00,VWS V14.01,2013-01-07 03:42:00,
2013-01-06 21:45:00,23.2,18.8,30.35,WNW,300,0.0,0.0,83,0.00,,CLR,0.00,VWS V14.01,2013-01-07 03:45:00,
2013-01-06 21:46:00,23.2,18.8,30.35,WNW,300,0.0,0.0,83,0.00,,CLR,0.00,VWS V14.01,2013-01-07 03:46:00,
2013-01-06 21:47:00,23.2,18.8,30.35,WNW,299,0.0,0.0,83,0.00,,CLR,0.00,VWS V14.01,2013-01-07 03:47:00,
2013-01-06 21:50:00,23.1,18.7,30.35,WNW,299,0.0,0.0,83,0.00,,CLR,0.00,VWS V14.01,2013-01-07 03:50:00,
2013-01-06 21:51:00,23.1,18.7,30.35,WNW,300,0.0,0.0,83,0.00,,CLR,0.00,VWS V14.01,2013-01-07 03:51:00,
2013-01-06 21:52:00,23.1,18.7,30.35,WNW,300,0.0,0.0,83,0.00,,CLR,0.00,VWS V14.01,2013-01-07 03:52:00,
2013-01-06 21:56:00,23.1,18.7,30.35,WNW,299,0.0,0.0,83,0.00,,CLR,0.00,VWS V14.01,2013-01-07 03:56:00,
2013-01-06 21:57:00,23.1,18.7,30.35,WNW,300,0.0,0.0,83,0.00,,CLR,0.00,VWS V14.01,2013-01-07 03:57:00,
2013-01-06 22:00:00,21.3,17.2,30.35,WNW,300,0.0,0.0,84,0.00,,OVC041,0.00,VWS V14.01,2013-01-07 04:00:00,
2013-01-06 22:01:00,22.9,18.5,30.34,WNW,300,0.0,0.0,83,0.00,,CLR,0.00,VWS V14.01,2013-01-07 04:01:00,
2013-01-06 22:02:00,22.9,18.5,30.34,WNW,300,0.0,0.0,83,0.00,,CLR,0.00,VWS V14.01,2013-01-07 04:02:00,
2013-01-06 22:06:00,22.8,18.4,30.34,WNW,299,0.0,0.0,83,0.00,,CLR,0.00,VWS V14.01,2013-01-07 04:06:00,
2013-01-06 22:07:00,22.6,18.2,30.34,WNW,300,0.0,0.0,83,0.00,,CLR,0.00,VWS V14.01,2013-01-07 04:07:00,
2013-01-06 22:11:00,22.4,18.0,30.34,WNW,300,0.0,0.0,83,0.00,,CLR,0.00,VWS V14.01,2013-01-07 04:11:00,
2013-01-06 22:12:00,22.4,18.0,30.34,WNW,300,0.0,0.0,83,0.00,,CLR,0.00,VWS V14.01,2013-01-07 04:12:00,
2013-01-06 22:16:00,22.3,18.2,30.35,WNW,300,0.0,0.0,84,0.00,,CLR,0.00,VWS V14.01,2013-01-07 04:16:00,
2013-01-06 22:17:00,22.3,18.2,30.35,WNW,299,0.0,0.0,84,0.00,,CLR,0.00,VWS V14.01,2013-01-07 04:17:00,
2013-01-06 22:21:00,22.3,18.2,30.35,WNW,300,0.0,0.0,84,0.00,,CLR,0.00,VWS V14.01,2013-01-07 04:21:00,
2013-01-06 22:22:00,22.3,18.2,30.35,WNW,299,0.0,0.0,84,0.00,,CLR,0.00,VWS V14.01,2013-01-07 04:22:00,
2013-01-06 22:26:00,22.3,18.2,30.35,WNW,300,0.0,0.0,84,0.00,,CLR,0.00,VWS V14.01,2013-01-07 04:26:00,
2013-01-06 22:27:00,22.1,18.0,30.35,WNW,300,0.0,0.0,84,0.00,,CLR,0.00,VWS V14.01,2013-01-07 04:27:00,
2013-01-06 22:30:00,22.1,18.0,30.35,WNW,300,0.0,0.0,84,0.00,,,0.00,VWS V14.01,2013-01-07 04:30:00,
2013-01-06 22:31:00,22.0,17.9,30.35,WNW,299,0.0,0.0,84,0.00,,CLR,0.00,VWS V14.01,2013-01-07 04:31:00,
2013-01-06 22:32:00,22.0,17.9,30.35,WNW,299,0.0,0.0,84,0.00,,CLR,0.00,VWS V14.01,2013-01-07 04:32:00,
2013-01-06 22:33:00,22.0,17.9,30.35,WNW,300,0.0,0.0,84,0.00,,CLR,0.00,VWS V14.01,2013-01-07 04:33:00,
2013-01-06 22:37:00,22.0,17.9,30.35,WNW,299,0.0,0.0,84,0.00,,CLR,0.00,VWS V14.01,2013-01-07 04:37:00,
2013-01-06 22:38:00,22.0,17.9,30.35,WNW,300,0.0,0.0,84,0.00,,CLR,0.00,VWS V14.01,2013-01-07 04:38:00,
2013-01-06 22:42:00,21.8,17.7,30.35,WNW,299,0.0,0.0,84,0.00,,CLR,0.00,VWS V14.01,2013-01-07 04:42:00,
2013-01-06 22:43:00,21.8,17.7,30.35,WNW,300,0.0,0.0,84,0.00,,CLR,0.00,VWS V14.01,2013-01-07 04:43:00,
2013-01-06 22:47:00,21.7,17.6,30.35,WNW,299,0.0,0.0,84,0.00,,CLR,0.00,VWS V14.01,2013-01-07 04:47:00,
2013-01-06 22:48:00,21.7,17.6,30.35,WNW,299,0.0,0.0,84,0.00,,CLR,0.00,VWS V14.01,2013-01-07 04:48:00,
2013-01-06 22:52:00,21.5,17.4,30.35,WNW,300,0.0,0.0,84,0.00,,CLR,0.00,VWS V14.01,2013-01-07 04:52:00,
2013-01-06 22:53:00,21.3,17.2,30.35,WNW,299,0.0,0.0,84,0.00,,CLR,0.00,VWS V14.01,2013-01-07 04:53:00,
2013-01-06 22:57:00,21.3,17.2,30.35,WNW,300,0.0,0.0,84,0.00,,CLR,0.00,VWS V14.01,2013-01-07 04:57:00,
2013-01-06 22:58:00,21.3,17.2,30.35,WNW,300,0.0,0.0,84,0.00,,CLR,0.00,VWS V14.01,2013-01-07 04:58:00,
2013-01-06 23:00:00,21.3,17.5,30.35,WNW,300,0.0,0.0,85,0.00,,CLR,0.00,VWS V14.01,2013-01-07 05:00:00,
2013-01-06 23:01:00,21.3,17.5,30.35,WNW,300,0.0,0.0,85,0.00,,CLR,0.00,VWS V14.01,2013-01-07 05:01:00,
2013-01-06 23:05:00,21.3,17.5,30.35,WNW,299,0.0,0.0,85,0.00,,CLR,0.00,VWS V14.01,2013-01-07 05:05:00,
2013-01-06 23:07:00,21.2,17.4,30.35,WNW,300,0.0,0.0,85,0.00,,CLR,0.00,VWS V14.01,2013-01-07 05:07:00,
2013-01-06 23:10:00,21.2,17.4,30.35,WNW,299,0.0,0.0,85,0.00,,CLR,0.00,VWS V14.01,2013-01-07 05:10:00,
2013-01-06 23:12:00,21.0,17.2,30.35,WNW,300,0.0,0.0,85,0.00,,CLR,0.00,VWS V14.01,2013-01-07 05:12:00,
2013-01-06 23:15:00,21.0,17.2,30.35,WNW,300,0.0,0.0,85,0.00,,CLR,0.00,VWS V14.01,2013-01-07 05:15:00,
2013-01-06 23:17:00,20.9,17.1,30.35,WNW,300,0.0,0.0,85,0.00,,CLR,0.00,VWS V14.01,2013-01-07 05:17:00,
2013-01-06 23:20:00,20.9,17.1,30.35,WNW,299,0.0,0.0,85,0.00,,CLR,0.00,VWS V14.01,2013-01-07 05:20:00,
2013-01-06 23:21:00,20.9,17.1,30.35,WNW,299,0.0,0.0,85,0.00,,CLR,0.00,VWS V14.01,2013-01-07 05:21:00,
2013-01-06 23:22:00,20.7,16.9,30.35,WNW,299,0.0,0.0,85,0.00,,CLR,0.00,VWS V14.01,2013-01-07 05:22:00,
2013-01-06 23:25:00,20.7,16.9,30.35,WNW,300,0.0,0.0,85,0.00,,CLR,0.00,VWS V14.01,2013-01-07 05:25:00,
2013-01-06 23:26:00,20.7,16.9,30.35,WNW,300,0.0,0.0,85,0.00,,CLR,0.00,VWS V14.01,2013-01-07 05:26:00,
2013-01-06 23:27:00,20.7,16.9,30.35,WNW,300,0.0,0.0,85,0.00,,CLR,0.00,VWS V14.01,2013-01-07 05:27:00,
2013-01-06 23:30:00,20.5,16.7,30.36,WNW,300,0.0,0.0,85,0.00,,,0.00,VWS V14.01,2013-01-07 05:30:00,
2013-01-06 23:31:00,20.5,16.7,30.36,WNW,299,0.0,0.0,85,0.00,,CLR,0.00,VWS V14.01,2013-01-07 05:31:00,
2013-01-06 23:32:00,20.5,16.7,30.36,WNW,300,0.0,0.0,85,0.00,,CLR,0.00,VWS V14.01,2013-01-07 05:32:00,
2013-01-06 23:36:00,20.5,16.7,30.36,WNW,300,0.0,0.0,85,0.00,,CLR,0.00,VWS V14.01,2013-01-07 05:36:00,
2013-01-06 23:37:00,20.5,16.7,30.36,WNW,300,0.0,0.0,85,0.00,,CLR,0.00,VWS V14.01,2013-01-07 05:37:00,
2013-01-06 23:41:00,20.4,16.6,30.36,WNW,300,0.0,0.0,85,0.00,,CLR,0.00,VWS V14.01,2013-01-07 05:41:00,
2013-01-06 23:42:00,20.4,16.6,30.36,WNW,299,0.0,0.0,85,0.00,,CLR,0.00,VWS V14.01,2013-01-07 05:42:00,
2013-01-06 23:46:00,20.2,16.4,30.37,WNW,300,0.0,0.0,85,0.00,,CLR,0.00,VWS V14.01,2013-01-07 05:46:00,
2013-01-06 23:47:00,20.2,16.4,30.37,WNW,299,0.0,0.0,85,0.00,,CLR,0.00,VWS V14.01,2013-01-07 05:47:00,
2013-01-06 23:51:00,20.2,16.4,30.37,WNW,300,0.0,0.0,85,0.00,,CLR,0.00,VWS V14.01,2013-01-07 05:51:00,
2013-01-06 23:52:00,20.1,16.3,30.37,WNW,300,0.0,0.0,85,0.00,,CLR,0.00,VWS V14.01,2013-01-07 05:52:00,
2013-01-06 23:56:00,20.1,16.3,30.37,WNW,300,0.0,0.0,85,0.00,,CLR,0.00,VWS V14.01,2013-01-07 05:56:00,
2013-01-06 23:57:00,19.9,16.1,30.37,WNW,300,0.0,0.0,85,0.00,,CLR,0.00,VWS V14.01,2013-01-07 05:57:00,